AIC126 KORD-VIDP

Flight info

Callsign AIC126
Flight time 16h 24m
Altitude 33000
Route RAYNR DCT BRTMN DCT TAAYZ DCT TVC DCT YUY DCT MT/N0487F350 DCT EXPOS DCT LOMSI/M085F350 DCT 54N050W 55N040W 56N030W 56N020W DCT RESNO/N0485F350 DCT NETKI DCT LIPGO/N0484F370 DCT NUCHU L18 MID UL612 VEULE DCT TEPRI UN491 POGZI DCT GELTA DCT LUVAL/N0479F390 DCT SHARA DCT DEVDI DCT RIPUS DCT RESIA DCT TAGIP DCT LISKO DCT NOSTO DCT PAXIS DCT OBRAN L321 REXUM DCT PMA/N0488F410 Y214 RAPMA DCT MEVDO DCT ALROK DCT DEBIN DCT MIDGU DCT TULBU DCT KIPOL DCT RASKI L639 LAXOM J61 UUD Q3 BUBNU A347 UKASO UKASO6C
Aircraft A359/H-SDE2E3GHIJ3J4J5LM1ORWXY/LB1D1

Departure

Time 2026-04-26 16:31
Airport Chicago O'Hare International Airport (KORD)

Arrival

Time 2026-04-27 08:56
Airport Indira Gandhi International Airport (VIDP)
Time Latitude Longitude Altitude Speed Heading
2026-04-26 16:07 41.97358 -87.89088 656 ft 0 kts
2026-04-26 16:20 41.97344 -87.89088 656 ft 0 kts
2026-04-26 16:20 41.97334 -87.89088 656 ft 2 kts 354°
2026-04-26 16:21 41.97319 -87.89085 656 ft 2 kts 338°
2026-04-26 16:21 41.97306 -87.89075 657 ft 2 kts 326°
2026-04-26 16:21 41.97295 -87.89063 657 ft 2 kts 313°
2026-04-26 16:21 41.97286 -87.89047 657 ft 2 kts 300°
2026-04-26 16:22 41.97279 -87.89030 657 ft 2 kts 287°
2026-04-26 16:22 41.97276 -87.89011 657 ft 2 kts 274°
2026-04-26 16:22 41.97276 -87.89001 657 ft 0 kts 269°
2026-04-26 16:23 41.97276 -87.89002 657 ft 0 kts 269°
2026-04-26 16:23 41.97274 -87.89036 657 ft 5 kts 261°
2026-04-26 16:23 41.97248 -87.89083 658 ft 7 kts 205°
2026-04-26 16:24 41.97200 -87.89121 659 ft 4 kts 227°
2026-04-26 16:24 41.97195 -87.89167 659 ft 6 kts 268°
2026-04-26 16:24 41.97194 -87.89237 659 ft 8 kts 269°
2026-04-26 16:24 41.97194 -87.89334 659 ft 11 kts 269°
2026-04-26 16:25 41.97156 -87.89429 659 ft 13 kts 200°
2026-04-26 16:25 41.97064 -87.89467 659 ft 14 kts 241°
2026-04-26 16:25 41.97053 -87.89613 659 ft 17 kts 264°
2026-04-26 16:25 41.97047 -87.89778 662 ft 18 kts 269°
2026-04-26 16:26 41.97046 -87.89954 664 ft 19 kts 269°
2026-04-26 16:26 41.97044 -87.90080 664 ft 21 kts 269°
2026-04-26 16:26 41.97040 -87.90347 669 ft 21 kts 270°
2026-04-26 16:26 41.97041 -87.90564 671 ft 23 kts 270°
2026-04-26 16:27 41.97040 -87.90788 673 ft 25 kts 270°
2026-04-26 16:27 41.97040 -87.91038 673 ft 27 kts 270°
2026-04-26 16:27 41.97039 -87.91287 673 ft 27 kts 270°
2026-04-26 16:27 41.97039 -87.91544 672 ft 27 kts 270°
2026-04-26 16:28 41.97039 -87.91801 672 ft 27 kts 270°
2026-04-26 16:28 41.97038 -87.92059 676 ft 26 kts 269°
2026-04-26 16:28 41.97037 -87.92309 676 ft 27 kts 270°
2026-04-26 16:28 41.97037 -87.92566 676 ft 27 kts 269°
2026-04-26 16:29 41.97037 -87.92815 679 ft 26 kts 270°
2026-04-26 16:29 41.97036 -87.93057 683 ft 18 kts 270°
2026-04-26 16:29 41.96994 -87.93140 684 ft 11 kts 177°
2026-04-26 16:29 41.96920 -87.93140 685 ft 10 kts 179°
2026-04-26 16:30 41.96899 -87.93116 684 ft 0 kts 81°
2026-04-26 16:30 41.96899 -87.93101 684 ft 2 kts 90°
2026-04-26 16:30 41.96899 -87.93087 684 ft 0 kts 90°
2026-04-26 16:30 41.96899 -87.93071 684 ft 8 kts 90°
2026-04-26 16:31 41.96900 -87.92655 679 ft 78 kts 90°
2026-04-26 16:31 41.96903 -87.91634 673 ft 138 kts 91°
2026-04-26 16:31 41.96900 -87.90131 682 ft 185 kts 89°
2026-04-26 16:31 41.96874 -87.88412 1323 ft 186 kts 93°
2026-04-26 16:32 41.96794 -87.86661 1950 ft 195 kts 90°
2026-04-26 16:32 41.96943 -87.85410 2029 ft 217 kts 67°
2026-04-26 16:32 41.98549 -87.83621 2359 ft 246 kts 14°
2026-04-26 16:32 42.00294 -87.83457 2833 ft 256 kts
2026-04-26 16:33 42.02090 -87.83509 3317 ft 263 kts
2026-04-26 16:33 42.03817 -87.82747 3899 ft 261 kts 33°
2026-04-26 16:33 42.05312 -87.81428 4533 ft 262 kts 38°
2026-04-26 16:33 42.06834 -87.79998 4964 ft 269 kts 38°
2026-04-26 16:34 42.08364 -87.78599 5586 ft 271 kts 36°
2026-04-26 16:34 42.09949 -87.77203 6206 ft 273 kts 36°
2026-04-26 16:34 42.11567 -87.75819 6787 ft 277 kts 35°
2026-04-26 16:34 42.13212 -87.74440 7358 ft 281 kts 34°
2026-04-26 16:35 42.14861 -87.73068 7909 ft 284 kts 34°
2026-04-26 16:35 42.16547 -87.71670 8441 ft 287 kts 34°
2026-04-26 16:35 42.18274 -87.70242 8999 ft 291 kts 34°
2026-04-26 16:35 42.19982 -87.68829 9526 ft 294 kts 34°
2026-04-26 16:36 42.21740 -87.67376 10049 ft 297 kts 33°
2026-04-26 16:36 42.23531 -87.65894 10433 ft 307 kts 33°
2026-04-26 16:36 42.25388 -87.64356 10697 ft 320 kts 33°
2026-04-26 16:36 42.27322 -87.62755 10952 ft 333 kts 33°
2026-04-26 16:37 42.29303 -87.61114 11169 ft 345 kts 33°
2026-04-26 16:37 42.31405 -87.59372 11418 ft 358 kts 32°
2026-04-26 16:37 42.33564 -87.57581 11669 ft 370 kts 32°
2026-04-26 16:37 42.35764 -87.55755 11903 ft 382 kts 32°
2026-04-26 16:38 42.38068 -87.53841 12116 ft 394 kts 32°
2026-04-26 16:38 42.40413 -87.51891 12381 ft 404 kts 32°
2026-04-26 16:38 42.42838 -87.49873 12805 ft 409 kts 32°
2026-04-26 16:38 42.45258 -87.47857 13283 ft 412 kts 32°
2026-04-26 16:39 42.47694 -87.45826 13762 ft 415 kts 32°
2026-04-26 16:39 42.50161 -87.43767 14247 ft 418 kts 31°
2026-04-26 16:39 42.52636 -87.41700 14691 ft 421 kts 31°
2026-04-26 16:39 42.55144 -87.39603 15117 ft 424 kts 31°
2026-04-26 16:40 42.57633 -87.37521 15551 ft 427 kts 31°
2026-04-26 16:40 42.60188 -87.35381 15962 ft 430 kts 31°
2026-04-26 16:40 42.62741 -87.33235 16371 ft 433 kts 32°
2026-04-26 16:40 42.65284 -87.31087 16795 ft 436 kts 31°
2026-04-26 16:41 42.67859 -87.28910 17195 ft 439 kts 31°
2026-04-26 16:41 42.70447 -87.26725 17551 ft 442 kts 31°
2026-04-26 16:41 42.73070 -87.24512 17944 ft 445 kts 31°
2026-04-26 16:41 42.75701 -87.22292 18324 ft 447 kts 31°
2026-04-26 16:42 42.78323 -87.20079 18708 ft 449 kts 31°
2026-04-26 16:42 42.80998 -87.17819 19087 ft 452 kts 31°
2026-04-26 16:42 42.83662 -87.15568 19437 ft 454 kts 31°
2026-04-26 16:42 42.86361 -87.13284 19795 ft 456 kts 31°
2026-04-26 16:43 42.89064 -87.10995 20151 ft 459 kts 31°
2026-04-26 16:43 42.91739 -87.08727 20521 ft 460 kts 30°
2026-04-26 16:43 42.94484 -87.06396 20869 ft 462 kts 30°
2026-04-26 16:43 42.97222 -87.04069 21191 ft 465 kts 30°
2026-04-26 16:44 42.99961 -87.01740 21522 ft 467 kts 30°
2026-04-26 16:44 43.02700 -86.99409 21836 ft 469 kts 30°
2026-04-26 16:44 43.05456 -86.97059 22137 ft 471 kts 30°
2026-04-26 16:44 43.08243 -86.94682 22442 ft 473 kts 30°
2026-04-26 16:45 43.11030 -86.92301 22750 ft 475 kts 30°
2026-04-26 16:45 43.13849 -86.89902 23059 ft 476 kts 30°
2026-04-26 16:45 43.16678 -86.87495 23344 ft 478 kts 30°
2026-04-26 16:45 43.19469 -86.85111 23614 ft 480 kts 30°
2026-04-26 16:46 43.22306 -86.82683 23894 ft 482 kts 30°
2026-04-26 16:46 43.25169 -86.80228 24176 ft 484 kts 30°
2026-04-26 16:46 43.27989 -86.77804 24464 ft 485 kts 30°
2026-04-26 16:46 43.30848 -86.75343 24738 ft 486 kts 29°
2026-04-26 16:47 43.33743 -86.72849 24982 ft 488 kts 29°
2026-04-26 16:47 43.36580 -86.70402 25243 ft 489 kts 29°
2026-04-26 16:47 43.39468 -86.67909 25506 ft 490 kts 29°
2026-04-26 16:47 43.42366 -86.65403 25766 ft 492 kts 29°
2026-04-26 16:48 43.45245 -86.62909 26012 ft 493 kts 29°
2026-04-26 16:48 43.48156 -86.60387 26229 ft 495 kts 29°
2026-04-26 16:48 43.51046 -86.57879 26446 ft 496 kts 29°
2026-04-26 16:48 43.53964 -86.55346 26659 ft 497 kts 29°
2026-04-26 16:49 43.56889 -86.52802 26869 ft 498 kts 29°
2026-04-26 16:49 43.59817 -86.50253 27089 ft 499 kts 29°
2026-04-26 16:49 43.62741 -86.47704 27299 ft 500 kts 29°
2026-04-26 16:49 43.65709 -86.45113 27477 ft 502 kts 28°
2026-04-26 16:50 43.68627 -86.42564 27646 ft 503 kts 28°
2026-04-26 16:50 43.71593 -86.39970 27841 ft 504 kts 28°
2026-04-26 16:50 43.74532 -86.37396 28086 ft 504 kts 28°
2026-04-26 16:50 43.77499 -86.34794 28404 ft 502 kts 29°
2026-04-26 16:51 43.80423 -86.32216 28679 ft 501 kts 30°
2026-04-26 16:51 43.83347 -86.29628 28918 ft 500 kts 29°
2026-04-26 16:51 43.86261 -86.27049 29165 ft 499 kts 29°
2026-04-26 16:51 43.89204 -86.24447 29410 ft 499 kts 29°
2026-04-26 16:52 43.92095 -86.21892 29645 ft 498 kts 29°
2026-04-26 16:52 43.94037 -86.20174 29808 ft 497 kts 29°
2026-04-26 16:52 43.97910 -86.16750 30116 ft 496 kts 29°
2026-04-26 16:52 44.00820 -86.14176 30317 ft 496 kts 29°
2026-04-26 16:53 44.03726 -86.11601 30534 ft 496 kts 29°
2026-04-26 16:53 44.06640 -86.09015 30742 ft 495 kts 28°
2026-04-26 16:53 44.09518 -86.06458 30953 ft 494 kts 28°
2026-04-26 16:53 44.12389 -86.03911 31135 ft 494 kts 28°
2026-04-26 16:54 44.15306 -86.01328 31346 ft 493 kts 28°
2026-04-26 16:54 44.18168 -85.98789 31494 ft 493 kts 28°
2026-04-26 16:54 44.21057 -85.96219 31617 ft 494 kts 28°
2026-04-26 16:54 44.23945 -85.93643 31750 ft 494 kts 28°
2026-04-26 16:55 44.26848 -85.91049 31896 ft 494 kts 28°
2026-04-26 16:55 44.29729 -85.88470 32029 ft 495 kts 28°
2026-04-26 16:55 44.32630 -85.85868 32135 ft 495 kts 28°
2026-04-26 16:55 44.35506 -85.83286 32227 ft 496 kts 28°
2026-04-26 16:56 44.41298 -85.78077 32475 ft 497 kts 28°
2026-04-26 16:56 44.44190 -85.75472 32594 ft 497 kts 28°
2026-04-26 16:56 44.47091 -85.72853 32721 ft 497 kts 28°
2026-04-26 16:57 44.50013 -85.70215 32828 ft 497 kts 28°
2026-04-26 16:57 44.58720 -85.62331 33083 ft 499 kts 29°
2026-04-26 16:58 44.61579 -85.59570 33185 ft 501 kts 32°
2026-04-26 16:58 44.63411 -85.57632 33164 ft 503 kts 34°
2026-04-26 16:59 44.71908 -85.46363 33186 ft 509 kts 45°
2026-04-26 17:00 44.80969 -85.31056 33192 ft 511 kts 47°
2026-04-26 17:00 44.87700 -85.19544 33197 ft 510 kts 47°
2026-04-26 17:01 44.92209 -85.11847 33202 ft 510 kts 47°
2026-04-26 17:01 44.96715 -85.04146 33201 ft 510 kts 47°
2026-04-26 17:02 45.01211 -84.96444 33205 ft 510 kts 46°
2026-04-26 17:02 45.05704 -84.88727 33207 ft 510 kts 46°
2026-04-26 17:03 45.10163 -84.81049 33207 ft 509 kts 46°
2026-04-26 17:03 45.14676 -84.73304 33207 ft 509 kts 46°
2026-04-26 17:04 45.19143 -84.65608 33206 ft 509 kts 46°
2026-04-26 17:04 45.23598 -84.57888 33197 ft 508 kts 46°
2026-04-26 17:05 45.28073 -84.50104 33198 ft 508 kts 46°
2026-04-26 17:05 45.32524 -84.42333 33194 ft 508 kts 46°
2026-04-26 17:06 45.36953 -84.34581 33205 ft 508 kts 47°
2026-04-26 17:06 45.41364 -84.26806 33206 ft 508 kts 47°
2026-04-26 17:07 45.45795 -84.18980 33210 ft 508 kts 47°
2026-04-26 17:07 45.50229 -84.11144 33210 ft 508 kts 47°
2026-04-26 17:08 45.54621 -84.03367 33216 ft 508 kts 47°
2026-04-26 17:08 45.59051 -83.95503 33223 ft 508 kts 47°
2026-04-26 17:09 45.62703 -83.89005 33223 ft 508 kts 47°
2026-04-26 17:09 45.67850 -83.79821 33222 ft 507 kts 47°
2026-04-26 17:10 45.72214 -83.72009 33222 ft 508 kts 47°
2026-04-26 17:10 45.76604 -83.64131 33229 ft 507 kts 47°
2026-04-26 17:11 45.80990 -83.56237 33224 ft 508 kts 47°
2026-04-26 17:11 45.85368 -83.48334 33230 ft 508 kts 47°
2026-04-26 17:12 45.91913 -83.36478 33231 ft 507 kts 47°
2026-04-26 17:13 45.98468 -83.24514 33233 ft 508 kts 48°
2026-04-26 17:14 46.04972 -83.12607 33227 ft 508 kts 48°
2026-04-26 17:14 46.11514 -83.00610 33227 ft 508 kts 48°
2026-04-26 17:15 46.18040 -82.88660 33223 ft 508 kts 48°
2026-04-26 17:16 46.22381 -82.80652 33217 ft 508 kts 48°
2026-04-26 17:16 46.26695 -82.72659 33212 ft 508 kts 48°
2026-04-26 17:17 46.31037 -82.64584 33213 ft 508 kts 49°
2026-04-26 17:17 46.35338 -82.56562 33205 ft 508 kts 48°
2026-04-26 17:18 46.39673 -82.48453 33208 ft 509 kts 48°
2026-04-26 17:18 46.43987 -82.40359 33204 ft 508 kts 48°
2026-04-26 17:19 46.50425 -82.28217 33206 ft 509 kts 49°
2026-04-26 17:19 46.54709 -82.20093 33202 ft 509 kts 49°
2026-04-26 17:20 46.57579 -82.14643 33198 ft 508 kts 49°
2026-04-26 17:20 46.63282 -82.03800 33206 ft 508 kts 49°
2026-04-26 17:21 46.67556 -81.95653 33205 ft 507 kts 49°
2026-04-26 17:21 46.71819 -81.87505 33200 ft 508 kts 49°
2026-04-26 17:22 46.76092 -81.79307 33205 ft 508 kts 49°
2026-04-26 17:22 46.80312 -81.71191 33203 ft 507 kts 49°
2026-04-26 17:23 46.84573 -81.62970 33199 ft 506 kts 49°
2026-04-26 17:23 46.88800 -81.54794 33205 ft 506 kts 49°
2026-04-26 17:24 46.93016 -81.46613 33202 ft 506 kts 49°
2026-04-26 17:24 46.97221 -81.38428 33200 ft 505 kts 49°
2026-04-26 17:25 47.01407 -81.30246 33201 ft 504 kts 50°
2026-04-26 17:25 47.05583 -81.22038 33199 ft 504 kts 50°
2026-04-26 17:26 47.09785 -81.13773 33196 ft 504 kts 50°
2026-04-26 17:26 47.13952 -81.05605 33197 ft 504 kts 50°
2026-04-26 17:27 47.18146 -80.97368 33193 ft 503 kts 50°
2026-04-26 17:27 47.22278 -80.89199 33197 ft 502 kts 50°
2026-04-26 17:28 47.26427 -80.80959 33191 ft 502 kts 50°
2026-04-26 17:28 47.30577 -80.72691 33194 ft 502 kts 50°
2026-04-26 17:29 47.33996 -80.65858 33194 ft 502 kts 50°
2026-04-26 17:29 47.38793 -80.56243 33194 ft 501 kts 50°
2026-04-26 17:30 47.42909 -80.47964 33194 ft 500 kts 50°
2026-04-26 17:30 47.47001 -80.39711 33195 ft 500 kts 50°
2026-04-26 17:31 47.51072 -80.31466 33199 ft 499 kts 51°
2026-04-26 17:31 47.55130 -80.23197 33202 ft 499 kts 51°
2026-04-26 17:32 47.59187 -80.14923 33200 ft 498 kts 51°
2026-04-26 17:32 47.63245 -80.06633 33206 ft 498 kts 51°
2026-04-26 17:33 47.67287 -79.98354 33215 ft 497 kts 51°
2026-04-26 17:34 47.73341 -79.85911 33220 ft 496 kts 51°
2026-04-26 17:34 47.77335 -79.77670 33223 ft 495 kts 51°
2026-04-26 17:35 47.81368 -79.69325 33219 ft 496 kts 51°
2026-04-26 17:35 47.85348 -79.61063 33213 ft 495 kts 51°
2026-04-26 17:36 47.89334 -79.52765 33214 ft 494 kts 51°
2026-04-26 17:36 47.93315 -79.44448 33210 ft 494 kts 51°
2026-04-26 17:37 47.97282 -79.36140 33209 ft 493 kts 51°
2026-04-26 17:37 48.01235 -79.27814 33208 ft 494 kts 52°
2026-04-26 17:38 48.07158 -79.15295 33218 ft 492 kts 51°
2026-04-26 17:38 48.11083 -79.06998 33223 ft 492 kts 51°
2026-04-26 17:39 48.15043 -78.98645 33229 ft 491 kts 51°
2026-04-26 17:39 48.18776 -78.90175 33235 ft 493 kts 55°
2026-04-26 17:40 48.21131 -78.84282 33238 ft 493 kts 56°
2026-04-26 17:40 48.25764 -78.72533 33237 ft 492 kts 56°
2026-04-26 17:41 48.29208 -78.63780 33237 ft 492 kts 56°
2026-04-26 17:41 48.32662 -78.54981 33231 ft 491 kts 56°
2026-04-26 17:42 48.36125 -78.46131 33223 ft 490 kts 56°
2026-04-26 17:42 48.39568 -78.37310 33219 ft 490 kts 56°
2026-04-26 17:43 48.42971 -78.28541 33217 ft 490 kts 57°
2026-04-26 17:43 48.46381 -78.19709 33214 ft 489 kts 56°
2026-04-26 17:44 48.49797 -78.10854 33215 ft 489 kts 56°
2026-04-26 17:44 48.53193 -78.02028 33215 ft 489 kts 56°
2026-04-26 17:45 48.56585 -77.93191 33214 ft 488 kts 57°
2026-04-26 17:45 48.59969 -77.84349 33215 ft 488 kts 57°
2026-04-26 17:46 48.63350 -77.75479 33208 ft 488 kts 57°
2026-04-26 17:46 48.66718 -77.66614 33216 ft 488 kts 57°
2026-04-26 17:47 48.68946 -77.60731 33214 ft 488 kts 57°
2026-04-26 17:47 48.73431 -77.48858 33205 ft 488 kts 57°
2026-04-26 17:48 48.76779 -77.39956 33208 ft 488 kts 57°
2026-04-26 17:48 48.80114 -77.31052 33205 ft 488 kts 58°
2026-04-26 17:49 48.83440 -77.22115 33212 ft 488 kts 58°
2026-04-26 17:49 48.86760 -77.13179 33209 ft 488 kts 58°
2026-04-26 17:50 48.90061 -77.04274 33205 ft 488 kts 59°
2026-04-26 17:50 48.93380 -76.95294 33212 ft 488 kts 59°
2026-04-26 17:51 48.96684 -76.86327 33211 ft 488 kts 59°
2026-04-26 17:51 48.99983 -76.77347 33216 ft 488 kts 59°
2026-04-26 17:52 49.03276 -76.68344 33209 ft 488 kts 59°
2026-04-26 17:52 49.06561 -76.59338 33214 ft 488 kts 59°
2026-04-26 17:53 49.09826 -76.50354 33211 ft 488 kts 59°
2026-04-26 17:54 49.14770 -76.36800 33213 ft 488 kts 59°
2026-04-26 17:54 49.18034 -76.27762 33212 ft 488 kts 60°
2026-04-26 17:55 49.21278 -76.18712 33213 ft 488 kts 60°
2026-04-26 17:55 49.24522 -76.09637 33216 ft 488 kts 60°
2026-04-26 17:56 49.27736 -76.00620 33213 ft 487 kts 60°
2026-04-26 17:57 49.34187 -75.82426 33212 ft 487 kts 60°
2026-04-26 17:57 49.37412 -75.73283 33210 ft 487 kts 60°
2026-04-26 17:58 49.43813 -75.55044 33214 ft 487 kts 60°
2026-04-26 17:59 49.48580 -75.41376 33215 ft 486 kts 60°
2026-04-26 17:59 49.51761 -75.32209 33217 ft 486 kts 61°
2026-04-26 18:00 49.54900 -75.23104 33214 ft 486 kts 61°
2026-04-26 18:00 49.58060 -75.13921 33219 ft 486 kts 61°
2026-04-26 18:01 49.61208 -75.04752 33217 ft 486 kts 61°
2026-04-26 18:01 49.64354 -74.95561 33219 ft 486 kts 61°
2026-04-26 18:02 49.66428 -74.89480 33218 ft 485 kts 61°
2026-04-26 18:02 49.70598 -74.77216 33221 ft 485 kts 61°
2026-04-26 18:03 49.73714 -74.68017 33221 ft 484 kts 61°
2026-04-26 18:03 49.76801 -74.58870 33230 ft 483 kts 61°
2026-04-26 18:04 49.79885 -74.49691 33234 ft 481 kts 61°
2026-04-26 18:05 49.84529 -74.36039 33222 ft 477 kts 62°
2026-04-26 18:05 49.87575 -74.27030 33216 ft 476 kts 63°
2026-04-26 18:06 49.90644 -74.17901 33207 ft 477 kts 64°
2026-04-26 18:06 49.93704 -74.08782 33204 ft 479 kts 64°
2026-04-26 18:07 49.96756 -73.99663 33204 ft 479 kts 64°
2026-04-26 18:07 49.99805 -73.90512 33202 ft 479 kts 64°
2026-04-26 18:08 50.02849 -73.81361 33206 ft 478 kts 65°
2026-04-26 18:08 50.05889 -73.72189 33319 ft 478 kts 65°
2026-04-26 18:08 50.07400 -73.67617 33517 ft 476 kts 65°
2026-04-26 18:09 50.08901 -73.63070 33711 ft 474 kts 65°
2026-04-26 18:09 50.10401 -73.58515 33873 ft 473 kts 65°
2026-04-26 18:09 50.11907 -73.53971 33999 ft 472 kts 65°
2026-04-26 18:09 50.13405 -73.49453 34122 ft 472 kts 65°
2026-04-26 18:10 50.14904 -73.44907 34229 ft 471 kts 65°
2026-04-26 18:10 50.16388 -73.40388 34340 ft 470 kts 66°
2026-04-26 18:10 50.17871 -73.35864 34458 ft 469 kts 66°
2026-04-26 18:10 50.19350 -73.31332 34599 ft 468 kts 67°
2026-04-26 18:11 50.20810 -73.26833 34701 ft 467 kts 67°
2026-04-26 18:11 50.22279 -73.22292 34813 ft 466 kts 68°
2026-04-26 18:11 50.23736 -73.17776 34891 ft 466 kts 67°
2026-04-26 18:12 50.26640 -73.08774 35003 ft 466 kts 67°
2026-04-26 18:12 50.29543 -72.99745 35154 ft 466 kts 67°
2026-04-26 18:13 50.32445 -72.90693 35206 ft 465 kts 68°
2026-04-26 18:13 50.35319 -72.81700 35213 ft 463 kts 68°
2026-04-26 18:14 50.38201 -72.72640 35223 ft 463 kts 68°
2026-04-26 18:14 50.41051 -72.63657 35231 ft 462 kts 68°
2026-04-26 18:15 50.43883 -72.54693 35217 ft 461 kts 68°
2026-04-26 18:15 50.46706 -72.45720 35216 ft 461 kts 69°
2026-04-26 18:16 50.49527 -72.36727 35223 ft 459 kts 69°
2026-04-26 18:16 50.53713 -72.23293 35236 ft 457 kts 69°
2026-04-26 18:17 50.56490 -72.14342 35225 ft 456 kts 70°
2026-04-26 18:17 50.59251 -72.05416 35220 ft 457 kts 70°
2026-04-26 18:18 50.62004 -71.96495 35211 ft 455 kts 70°
2026-04-26 18:18 50.64749 -71.87566 35214 ft 455 kts 70°
2026-04-26 18:19 50.67492 -71.78600 35218 ft 454 kts 70°
2026-04-26 18:19 50.70213 -71.69688 35206 ft 453 kts 70°
2026-04-26 18:20 50.72926 -71.60767 35217 ft 453 kts 70°
2026-04-26 18:20 50.74736 -71.54789 35217 ft 452 kts 70°
2026-04-26 18:21 50.78335 -71.42872 35210 ft 452 kts 70°
2026-04-26 18:21 50.81014 -71.33969 35214 ft 452 kts 71°
2026-04-26 18:22 50.83683 -71.25039 35213 ft 450 kts 70°
2026-04-26 18:22 50.86338 -71.16126 35211 ft 450 kts 70°
2026-04-26 18:23 50.88988 -71.07205 35206 ft 449 kts 70°
2026-04-26 18:23 50.91647 -70.98231 35209 ft 449 kts 70°
2026-04-26 18:24 50.94273 -70.89335 35207 ft 449 kts 70°
2026-04-26 18:24 50.96911 -70.80363 35206 ft 448 kts 70°
2026-04-26 18:25 50.99522 -70.71454 35206 ft 449 kts 70°
2026-04-26 18:25 51.02125 -70.62536 35199 ft 448 kts 70°
2026-04-26 18:26 51.04734 -70.53565 35202 ft 447 kts 70°
2026-04-26 18:26 51.07321 -70.44640 35199 ft 448 kts 70°
2026-04-26 18:27 51.09906 -70.35685 35198 ft 447 kts 70°
2026-04-26 18:27 51.12514 -70.26681 35201 ft 448 kts 70°
2026-04-26 18:28 51.15093 -70.17740 35202 ft 446 kts 70°
2026-04-26 18:28 51.17657 -70.08785 35196 ft 447 kts 70°
2026-04-26 18:29 51.20206 -69.99837 35192 ft 446 kts 70°
2026-04-26 18:29 51.22760 -69.90820 35194 ft 446 kts 70°
2026-04-26 18:30 51.25297 -69.81827 35205 ft 446 kts 70°
2026-04-26 18:30 51.27828 -69.72829 35210 ft 447 kts 70°
2026-04-26 18:31 51.30358 -69.63791 35214 ft 447 kts 70°
2026-04-26 18:31 51.32870 -69.54785 35209 ft 447 kts 70°
2026-04-26 18:32 51.35396 -69.45695 35208 ft 447 kts 70°
2026-04-26 18:32 51.37894 -69.36673 35216 ft 447 kts 70°
2026-04-26 18:33 51.40404 -69.27548 35228 ft 447 kts 70°
2026-04-26 18:33 51.42886 -69.18489 35237 ft 447 kts 70°
2026-04-26 18:34 51.45372 -69.09396 35239 ft 446 kts 70°
2026-04-26 18:34 51.47833 -69.00362 35243 ft 447 kts 70°
2026-04-26 18:35 51.50304 -68.91256 35239 ft 447 kts 70°
2026-04-26 18:35 51.52778 -68.82107 35229 ft 446 kts 70°
2026-04-26 18:36 51.55215 -68.73059 35214 ft 445 kts 70°
2026-04-26 18:36 51.57676 -68.63887 35218 ft 446 kts 70°
2026-04-26 18:37 51.60108 -68.54776 35222 ft 446 kts 70°
2026-04-26 18:37 51.62530 -68.45684 35232 ft 446 kts 70°
2026-04-26 18:38 51.64959 -68.36520 35226 ft 446 kts 70°
2026-04-26 18:38 51.67379 -68.27331 35221 ft 446 kts 70°
2026-04-26 18:39 51.69780 -68.18178 35208 ft 446 kts 70°
2026-04-26 18:39 51.72183 -68.08999 35201 ft 447 kts 70°
2026-04-26 18:40 51.74568 -67.99845 35188 ft 447 kts 70°
2026-04-26 18:40 51.76973 -67.90590 35180 ft 446 kts 70°
2026-04-26 18:41 51.79353 -67.81393 35172 ft 447 kts 70°
2026-04-26 18:41 51.81727 -67.72180 35167 ft 446 kts 70°
2026-04-26 18:42 51.84094 -67.62960 35174 ft 446 kts 70°
2026-04-26 18:42 51.86454 -67.53727 35173 ft 446 kts 70°
2026-04-26 18:43 51.88815 -67.44456 35182 ft 446 kts 70°
2026-04-26 18:43 51.91155 -67.35223 35177 ft 446 kts 70°
2026-04-26 18:44 51.93489 -67.25953 35183 ft 446 kts 70°
2026-04-26 18:44 51.95830 -67.16635 35187 ft 446 kts 70°
2026-04-26 18:45 51.98156 -67.07339 35186 ft 447 kts 70°
2026-04-26 18:45 52.00209 -66.97926 35192 ft 445 kts 75°
2026-04-26 18:46 52.01771 -66.88301 35205 ft 444 kts 77°
2026-04-26 18:46 52.03256 -66.78580 35215 ft 443 kts 77°
2026-04-26 18:47 52.04724 -66.68884 35217 ft 444 kts 77°
2026-04-26 18:47 52.06186 -66.59193 35208 ft 443 kts 77°
2026-04-26 18:48 52.07637 -66.49524 35196 ft 443 kts 77°
2026-04-26 18:48 52.09076 -66.39874 35187 ft 443 kts 77°
2026-04-26 18:49 52.10521 -66.30137 35188 ft 443 kts 77°
2026-04-26 18:49 52.11981 -66.20408 35186 ft 442 kts 77°
2026-04-26 18:50 52.13405 -66.10775 35183 ft 442 kts 77°
2026-04-26 18:50 52.14830 -66.01029 35184 ft 443 kts 77°
2026-04-26 18:51 52.16240 -65.91296 35175 ft 442 kts 77°
2026-04-26 18:51 52.17633 -65.81596 35178 ft 442 kts 77°
2026-04-26 18:52 52.19019 -65.71898 35173 ft 442 kts 77°
2026-04-26 18:52 52.20387 -65.62240 35175 ft 441 kts 77°
2026-04-26 18:53 52.21751 -65.52567 35177 ft 440 kts 77°
2026-04-26 18:53 52.23112 -65.42840 35183 ft 440 kts 77°
2026-04-26 18:54 52.24457 -65.33172 35179 ft 440 kts 77°
2026-04-26 18:54 52.25792 -65.23476 35176 ft 439 kts 77°
2026-04-26 18:55 52.27122 -65.13773 35174 ft 439 kts 77°
2026-04-26 18:55 52.28443 -65.04079 35182 ft 440 kts 77°
2026-04-26 18:56 52.29755 -64.94394 35183 ft 439 kts 77°
2026-04-26 18:56 52.31062 -64.84685 35193 ft 439 kts 77°
2026-04-26 18:57 52.32143 -64.76607 35188 ft 438 kts 77°
2026-04-26 18:57 52.33642 -64.65318 35190 ft 438 kts 77°
2026-04-26 18:58 52.34926 -64.55589 35185 ft 439 kts 76°
2026-04-26 18:58 52.36198 -64.45882 35181 ft 439 kts 76°
2026-04-26 18:59 52.37462 -64.36174 35187 ft 439 kts 76°
2026-04-26 18:59 52.38721 -64.26399 35191 ft 438 kts 77°
2026-04-26 19:00 52.39965 -64.16682 35182 ft 438 kts 77°
2026-04-26 19:00 52.41198 -64.06990 35181 ft 438 kts 77°
2026-04-26 19:01 52.42426 -63.97285 35173 ft 438 kts 76°
2026-04-26 19:01 52.43655 -63.87505 35171 ft 438 kts 76°
2026-04-26 19:02 52.44871 -63.77756 35167 ft 438 kts 76°
2026-04-26 19:02 52.45874 -63.69672 35160 ft 437 kts 76°
2026-04-26 19:03 52.47272 -63.58309 35161 ft 438 kts 76°
2026-04-26 19:03 52.48466 -63.48528 35162 ft 438 kts 76°
2026-04-26 19:04 52.49640 -63.38842 35159 ft 438 kts 76°
2026-04-26 19:04 52.50816 -63.29053 35160 ft 438 kts 77°
2026-04-26 19:05 52.52563 -63.14356 35159 ft 438 kts 77°
2026-04-26 19:06 52.53712 -63.04626 35162 ft 438 kts 77°
2026-04-26 19:06 52.54863 -62.94801 35170 ft 438 kts 77°
2026-04-26 19:07 52.56003 -62.85010 35174 ft 438 kts 76°
2026-04-26 19:07 52.57133 -62.75216 35172 ft 437 kts 76°
2026-04-26 19:08 52.58252 -62.65445 35173 ft 437 kts 76°
2026-04-26 19:08 52.59358 -62.55726 35175 ft 437 kts 76°
2026-04-26 19:09 52.60463 -62.45922 35173 ft 436 kts 76°
2026-04-26 19:09 52.61561 -62.36124 35177 ft 436 kts 76°
2026-04-26 19:10 52.62637 -62.26398 35176 ft 436 kts 77°
2026-04-26 19:10 52.63713 -62.16600 35170 ft 436 kts 77°
2026-04-26 19:11 52.64778 -62.06855 35170 ft 435 kts 77°
2026-04-26 19:11 52.65836 -61.97081 35171 ft 436 kts 76°
2026-04-26 19:12 52.66894 -61.87258 35170 ft 436 kts 76°
2026-04-26 19:12 52.67938 -61.77472 35170 ft 435 kts 76°
2026-04-26 19:13 52.68966 -61.67740 35172 ft 435 kts 76°
2026-04-26 19:13 52.69994 -61.57954 35174 ft 434 kts 76°
2026-04-26 19:14 52.71010 -61.48209 35166 ft 433 kts 76°
2026-04-26 19:14 52.72019 -61.38417 35171 ft 433 kts 76°
2026-04-26 19:15 52.73013 -61.28680 35167 ft 432 kts 77°
2026-04-26 19:15 52.74000 -61.18923 35176 ft 432 kts 77°
2026-04-26 19:16 52.74977 -61.09190 35165 ft 431 kts 77°
2026-04-26 19:16 52.75946 -60.99474 35165 ft 431 kts 77°
2026-04-26 19:17 52.76903 -60.89787 35165 ft 431 kts 77°
2026-04-26 19:17 52.77855 -60.80065 35158 ft 431 kts 76°
2026-04-26 19:18 52.78807 -60.70277 35159 ft 431 kts 76°
2026-04-26 19:18 52.79739 -60.60595 35151 ft 430 kts 76°
2026-04-26 19:19 52.80669 -60.50854 35157 ft 431 kts 76°
2026-04-26 19:19 52.81587 -60.41164 35152 ft 431 kts 76°
2026-04-26 19:20 52.82501 -60.31392 35154 ft 432 kts 77°
2026-04-26 19:20 52.83407 -60.21581 35152 ft 432 kts 77°
2026-04-26 19:21 52.84303 -60.11834 35154 ft 432 kts 77°
2026-04-26 19:21 52.85196 -60.02020 35153 ft 433 kts 76°
2026-04-26 19:22 52.86079 -59.92249 35153 ft 432 kts 76°
2026-04-26 19:22 52.86956 -59.82436 35139 ft 433 kts 76°
2026-04-26 19:23 52.87830 -59.72590 35128 ft 435 kts 76°
2026-04-26 19:23 52.88698 -59.62683 35120 ft 437 kts 76°
2026-04-26 19:24 52.89558 -59.52777 35111 ft 435 kts 76°
2026-04-26 19:24 52.90831 -59.37914 35095 ft 437 kts 76°
2026-04-26 19:25 52.91394 -59.31273 35092 ft 438 kts 77°
2026-04-26 19:25 52.92499 -59.18058 35082 ft 437 kts 77°
2026-04-26 19:26 52.93326 -59.08064 35083 ft 437 kts 77°
2026-04-26 19:26 52.94141 -58.98131 35087 ft 436 kts 76°
2026-04-26 19:27 52.94946 -58.88193 35088 ft 436 kts 77°
2026-04-26 19:27 52.95742 -58.78285 35080 ft 436 kts 76°
2026-04-26 19:28 52.96531 -58.68383 35083 ft 435 kts 77°
2026-04-26 19:28 52.97310 -58.58473 35080 ft 435 kts 76°
2026-04-26 19:29 52.98076 -58.48635 35073 ft 434 kts 76°
2026-04-26 19:29 52.98840 -58.38714 35089 ft 433 kts 76°
2026-04-26 19:30 52.99590 -58.28811 35079 ft 433 kts 77°
2026-04-26 19:30 53.00201 -58.20624 35082 ft 433 kts 76°
2026-04-26 19:31 53.01056 -58.09112 35066 ft 433 kts 76°
2026-04-26 19:31 53.01785 -57.99210 35057 ft 432 kts 77°
2026-04-26 19:32 53.02500 -57.89390 35050 ft 431 kts 76°
2026-04-26 19:32 53.03209 -57.79505 35047 ft 433 kts 76°
2026-04-26 19:33 53.03910 -57.69653 35069 ft 433 kts 77°
2026-04-26 19:33 53.04600 -57.59786 35048 ft 432 kts 76°
2026-04-26 19:34 53.05287 -57.49876 35052 ft 432 kts 76°
2026-04-26 19:34 53.05962 -57.40009 35028 ft 433 kts 76°
2026-04-26 19:35 53.06629 -57.30133 35016 ft 432 kts 77°
2026-04-26 19:35 53.07290 -57.20200 35010 ft 432 kts 77°
2026-04-26 19:36 53.07720 -57.13656 35006 ft 433 kts 77°
2026-04-26 19:36 53.08583 -57.00411 34991 ft 434 kts 76°
2026-04-26 19:37 53.09219 -56.90515 34989 ft 433 kts 77°
2026-04-26 19:37 53.09972 -56.80621 34996 ft 429 kts 73°
2026-04-26 19:38 53.11227 -56.70998 34995 ft 425 kts 69°
2026-04-26 19:38 53.12761 -56.61612 34998 ft 424 kts 68°
2026-04-26 19:39 53.14304 -56.52144 35002 ft 425 kts 68°
2026-04-26 19:39 53.15841 -56.42631 35000 ft 425 kts 68°
2026-04-26 19:40 53.17355 -56.33205 35012 ft 425 kts 69°
2026-04-26 19:40 53.18866 -56.23698 35012 ft 426 kts 69°
2026-04-26 19:41 53.20362 -56.14247 35008 ft 425 kts 69°
2026-04-26 19:41 53.21362 -56.07903 35011 ft 425 kts 69°
2026-04-26 19:42 53.23356 -55.95208 35010 ft 425 kts 69°
2026-04-26 19:42 53.24839 -55.85693 35036 ft 425 kts 69°
2026-04-26 19:43 53.26312 -55.76190 35216 ft 425 kts 69°
2026-04-26 19:43 53.27777 -55.66690 35279 ft 426 kts 69°
2026-04-26 19:44 53.29244 -55.57122 35367 ft 426 kts 69°
2026-04-26 19:44 53.30699 -55.47585 35492 ft 426 kts 69°
2026-04-26 19:45 53.32144 -55.38027 35557 ft 426 kts 69°
2026-04-26 19:45 53.33585 -55.28433 35615 ft 427 kts 70°
2026-04-26 19:46 53.35022 -55.18800 35714 ft 427 kts 70°
2026-04-26 19:46 53.36445 -55.09190 35796 ft 428 kts 70°
2026-04-26 19:47 53.37627 -55.01196 35829 ft 429 kts 70°
2026-04-26 19:47 53.39286 -54.89922 35861 ft 429 kts 70°
2026-04-26 19:48 53.40695 -54.80257 35956 ft 429 kts 70°
2026-04-26 19:48 53.42104 -54.70560 35977 ft 430 kts 70°
2026-04-26 19:49 53.43504 -54.60840 36021 ft 431 kts 70°
2026-04-26 19:49 53.44899 -54.51121 36044 ft 430 kts 70°
2026-04-26 19:50 53.46287 -54.41373 36080 ft 431 kts 70°
2026-04-26 19:50 53.47662 -54.31645 36079 ft 431 kts 71°
2026-04-26 19:51 53.49029 -54.21876 36156 ft 431 kts 71°
2026-04-26 19:51 53.50395 -54.12067 36165 ft 433 kts 71°
2026-04-26 19:52 53.51760 -54.02230 36123 ft 434 kts 71°
2026-04-26 19:52 53.53106 -53.92458 36186 ft 434 kts 71°
2026-04-26 19:53 53.54459 -53.82571 36230 ft 434 kts 71°
2026-04-26 19:53 53.55802 -53.72700 36221 ft 435 kts 71°
2026-04-26 19:54 53.57133 -53.62862 36260 ft 435 kts 71°
2026-04-26 19:54 53.58462 -53.52931 36287 ft 436 kts 71°
2026-04-26 19:55 53.59784 -53.43038 36261 ft 437 kts 71°
2026-04-26 19:55 53.61109 -53.33031 36262 ft 438 kts 72°
2026-04-26 19:56 53.62408 -53.23094 36289 ft 438 kts 72°
2026-04-26 19:56 53.63715 -53.13062 36303 ft 439 kts 72°
2026-04-26 19:57 53.65007 -53.03090 36351 ft 439 kts 72°
2026-04-26 19:57 53.66296 -52.93073 36484 ft 438 kts 72°
2026-04-26 19:58 53.66932 -52.88099 36585 ft 436 kts 72°
2026-04-26 19:58 53.67572 -52.83092 36716 ft 434 kts 72°
2026-04-26 19:58 53.68825 -52.73229 36785 ft 435 kts 72°
2026-04-26 19:59 53.70079 -52.63267 36799 ft 435 kts 72°
2026-04-26 19:59 53.71330 -52.53268 36795 ft 436 kts 72°
2026-04-26 20:00 53.72570 -52.43282 36774 ft 437 kts 72°
2026-04-26 20:00 53.73805 -52.33277 36774 ft 437 kts 73°
2026-04-26 20:01 53.75020 -52.23299 36769 ft 438 kts 73°
2026-04-26 20:01 53.76242 -52.13210 36750 ft 438 kts 73°
2026-04-26 20:02 53.77450 -52.03180 36744 ft 439 kts 73°
2026-04-26 20:02 53.78458 -51.94759 36740 ft 439 kts 73°
2026-04-26 20:03 53.79854 -51.83024 36730 ft 441 kts 73°
2026-04-26 20:03 53.81054 -51.72845 36737 ft 441 kts 73°
2026-04-26 20:04 53.82234 -51.62762 36730 ft 442 kts 73°
2026-04-26 20:04 53.83416 -51.52560 36717 ft 443 kts 73°
2026-04-26 20:05 53.84585 -51.42419 36701 ft 443 kts 73°
2026-04-26 20:05 53.85755 -51.32171 36702 ft 444 kts 74°
2026-04-26 20:06 53.86907 -51.21947 36691 ft 445 kts 73°
2026-04-26 20:06 53.88061 -51.11659 36691 ft 446 kts 73°
2026-04-26 20:07 53.89206 -51.01392 36681 ft 446 kts 74°
2026-04-26 20:07 53.90344 -50.91107 36688 ft 447 kts 74°
2026-04-26 20:08 53.91475 -50.80774 36695 ft 448 kts 74°
2026-04-26 20:08 53.92600 -50.70446 36669 ft 449 kts 74°
2026-04-26 20:09 53.93718 -50.60049 36662 ft 449 kts 75°
2026-04-26 20:09 53.94831 -50.49676 36667 ft 449 kts 74°
2026-04-26 20:10 53.95931 -50.39266 36668 ft 450 kts 74°
2026-04-26 20:10 53.97022 -50.28865 36648 ft 451 kts 75°
2026-04-26 20:11 53.98112 -50.18383 36642 ft 451 kts 76°
2026-04-26 20:12 53.99730 -50.02680 36647 ft 452 kts 75°
2026-04-26 20:12 54.01099 -49.92345 36618 ft 450 kts 72°
2026-04-26 20:13 54.02577 -49.82037 36620 ft 451 kts 72°
2026-04-26 20:13 54.04046 -49.71740 36584 ft 452 kts 72°
2026-04-26 20:14 54.05505 -49.61431 36688 ft 451 kts 72°
2026-04-26 20:14 54.06961 -49.51069 36623 ft 451 kts 71°
2026-04-26 20:15 54.08407 -49.40728 36612 ft 450 kts 71°
2026-04-26 20:15 54.09840 -49.30394 36591 ft 451 kts 72°
2026-04-26 20:16 54.11279 -49.20048 36591 ft 451 kts 72°
2026-04-26 20:16 54.12721 -49.09678 36566 ft 453 kts 72°
2026-04-26 20:17 54.14146 -48.99249 36579 ft 453 kts 72°
2026-04-26 20:17 54.15561 -48.88799 36576 ft 454 kts 72°
2026-04-26 20:18 54.16964 -48.78323 36560 ft 455 kts 72°
2026-04-26 20:18 54.18361 -48.67819 36558 ft 456 kts 73°
2026-04-26 20:19 54.19745 -48.57343 36556 ft 457 kts 73°
2026-04-26 20:19 54.21131 -48.46757 36542 ft 457 kts 73°
2026-04-26 20:20 54.22501 -48.36210 36544 ft 458 kts 73°
2026-04-26 20:20 54.23870 -48.25588 36533 ft 459 kts 74°
2026-04-26 20:21 54.25224 -48.15014 36506 ft 461 kts 74°
2026-04-26 20:21 54.26579 -48.04335 36531 ft 461 kts 74°
2026-04-26 20:22 54.27931 -47.93609 36521 ft 462 kts 74°
2026-04-26 20:22 54.29273 -47.82892 36504 ft 463 kts 75°
2026-04-26 20:23 54.30603 -47.72177 36501 ft 464 kts 74°
2026-04-26 20:23 54.31936 -47.61371 36490 ft 465 kts 75°
2026-04-26 20:24 54.33253 -47.50600 36493 ft 465 kts 75°
2026-04-26 20:24 54.34567 -47.39784 36482 ft 466 kts 75°
2026-04-26 20:25 54.35867 -47.28955 36483 ft 467 kts 75°
2026-04-26 20:25 54.37162 -47.18065 36477 ft 468 kts 75°
2026-04-26 20:26 54.38454 -47.07153 36493 ft 469 kts 75°
2026-04-26 20:26 54.39733 -46.96260 36478 ft 470 kts 76°
2026-04-26 20:27 54.41011 -46.85285 36462 ft 468 kts 76°
2026-04-26 20:27 54.42256 -46.74485 36458 ft 465 kts 76°
2026-04-26 20:28 54.43500 -46.63642 36460 ft 464 kts 76°
2026-04-26 20:28 54.44736 -46.52763 36467 ft 465 kts 76°
2026-04-26 20:29 54.45958 -46.41906 36469 ft 466 kts 76°
2026-04-26 20:29 54.47171 -46.31010 36470 ft 466 kts 77°
2026-04-26 20:30 54.48377 -46.20081 36457 ft 467 kts 77°
2026-04-26 20:30 54.49569 -46.09197 36450 ft 467 kts 77°
2026-04-26 20:31 54.50763 -45.98211 36458 ft 468 kts 78°
2026-04-26 20:31 54.51945 -45.87239 36472 ft 469 kts 77°
2026-04-26 20:32 54.53117 -45.76271 36455 ft 470 kts 78°
2026-04-26 20:32 54.54278 -45.65280 36432 ft 469 kts 78°
2026-04-26 20:33 54.55434 -45.54263 36452 ft 470 kts 78°
2026-04-26 20:33 54.56582 -45.43220 36446 ft 471 kts 78°
2026-04-26 20:34 54.57723 -45.32124 36448 ft 471 kts 79°
2026-04-26 20:34 54.58845 -45.21079 36443 ft 472 kts 79°
2026-04-26 20:35 54.59967 -45.09942 36434 ft 473 kts 79°
2026-04-26 20:35 54.61076 -44.98858 36431 ft 474 kts 79°
2026-04-26 20:36 54.62181 -44.87694 36436 ft 475 kts 79°
2026-04-26 20:36 54.63277 -44.76510 36440 ft 475 kts 79°
2026-04-26 20:37 54.64366 -44.65287 36447 ft 475 kts 79°
2026-04-26 20:37 54.65442 -44.54107 36459 ft 476 kts 80°
2026-04-26 20:38 54.66509 -44.42890 36446 ft 477 kts 80°
2026-04-26 20:38 54.67571 -44.31596 36446 ft 478 kts 81°
2026-04-26 20:39 54.68618 -44.20334 36449 ft 478 kts 81°
2026-04-26 20:39 54.69663 -44.08977 36454 ft 479 kts 81°
2026-04-26 20:40 54.70695 -43.97653 36461 ft 480 kts 81°
2026-04-26 20:40 54.71715 -43.86344 36472 ft 480 kts 81°
2026-04-26 20:41 54.72731 -43.74984 36477 ft 481 kts 81°
2026-04-26 20:41 54.73741 -43.63530 36472 ft 482 kts 81°
2026-04-26 20:42 54.74736 -43.52138 36476 ft 481 kts 82°
2026-04-26 20:42 54.75721 -43.40718 36480 ft 482 kts 82°
2026-04-26 20:43 54.76697 -43.29269 36478 ft 483 kts 82°
2026-04-26 20:43 54.77660 -43.17827 36484 ft 484 kts 83°
2026-04-26 20:44 54.78619 -43.06306 36480 ft 484 kts 83°
2026-04-26 20:44 54.79563 -42.94838 36489 ft 485 kts 83°
2026-04-26 20:45 54.80503 -42.83297 36489 ft 486 kts 83°
2026-04-26 20:45 54.81430 -42.71763 36492 ft 486 kts 83°
2026-04-26 20:46 54.82352 -42.60169 36501 ft 487 kts 83°
2026-04-26 20:46 54.83258 -42.48603 36505 ft 488 kts 83°
2026-04-26 20:47 54.84156 -42.36994 36507 ft 488 kts 83°
2026-04-26 20:47 54.85047 -42.25332 36508 ft 489 kts 84°
2026-04-26 20:48 54.85926 -42.13663 36515 ft 490 kts 84°
2026-04-26 20:48 54.86361 -42.07832 36367 ft 490 kts 84°
2026-04-26 20:48 54.86792 -42.02027 36459 ft 490 kts 84°
2026-04-26 20:49 54.87651 -41.90339 36527 ft 492 kts 84°
2026-04-26 20:49 54.88504 -41.78559 36537 ft 493 kts 84°
2026-04-26 20:50 54.89346 -41.66806 36544 ft 493 kts 85°
2026-04-26 20:50 54.90177 -41.55003 36543 ft 493 kts 85°
2026-04-26 20:51 54.90995 -41.43231 36547 ft 493 kts 85°
2026-04-26 20:51 54.91803 -41.31430 36548 ft 494 kts 86°
2026-04-26 20:52 54.92596 -41.19669 36556 ft 494 kts 86°
2026-04-26 20:52 54.93384 -41.07816 36554 ft 495 kts 86°
2026-04-26 20:53 54.94157 -40.96003 36558 ft 495 kts 86°
2026-04-26 20:53 54.94918 -40.84187 36565 ft 495 kts 86°
2026-04-26 20:54 54.95670 -40.72342 36567 ft 496 kts 86°
2026-04-26 20:54 54.96415 -40.60418 36572 ft 496 kts 86°
2026-04-26 20:55 54.97142 -40.48590 36576 ft 496 kts 86°
2026-04-26 20:55 54.97861 -40.36716 36582 ft 497 kts 86°
2026-04-26 20:56 54.98572 -40.24748 36573 ft 497 kts 87°
2026-04-26 20:56 54.99265 -40.12880 36593 ft 497 kts 88°
2026-04-26 20:57 55.00084 -40.00990 36581 ft 499 kts 84°
2026-04-26 20:57 55.01529 -39.89191 36576 ft 501 kts 79°
2026-04-26 20:58 55.03211 -39.77445 36569 ft 503 kts 79°
2026-04-26 20:58 55.04892 -39.65657 36565 ft 503 kts 79°
2026-04-26 20:59 55.06556 -39.53862 36574 ft 504 kts 79°
2026-04-26 20:59 55.08206 -39.42031 36582 ft 504 kts 79°
2026-04-26 21:00 55.09843 -39.30198 36584 ft 505 kts 80°
2026-04-26 21:00 55.11487 -39.18375 36629 ft 504 kts 80°
2026-04-26 21:01 55.13133 -39.06472 36609 ft 504 kts 80°
2026-04-26 21:01 55.14742 -38.94633 36612 ft 505 kts 80°
2026-04-26 21:02 55.16341 -38.82728 36619 ft 505 kts 80°
2026-04-26 21:02 55.17928 -38.70789 36622 ft 507 kts 81°
2026-04-26 21:03 55.19505 -38.58826 36627 ft 507 kts 81°
2026-04-26 21:03 55.21072 -38.46845 36634 ft 507 kts 81°
2026-04-26 21:04 55.22627 -38.34853 36638 ft 508 kts 82°
2026-04-26 21:04 55.24172 -38.22807 36639 ft 508 kts 82°
2026-04-26 21:05 55.25702 -38.10789 36647 ft 508 kts 82°
2026-04-26 21:05 55.27219 -37.98790 36646 ft 509 kts 82°
2026-04-26 21:06 55.28730 -37.86726 36658 ft 509 kts 82°
2026-04-26 21:06 55.30235 -37.74626 36663 ft 510 kts 82°
2026-04-26 21:07 55.31724 -37.62522 36677 ft 510 kts 82°
2026-04-26 21:07 55.33203 -37.50411 36671 ft 510 kts 82°
2026-04-26 21:08 55.34673 -37.38259 36662 ft 511 kts 82°
2026-04-26 21:08 55.36124 -37.26162 36678 ft 511 kts 83°
2026-04-26 21:09 55.37572 -37.13939 36682 ft 512 kts 83°
2026-04-26 21:09 55.39009 -37.01729 36683 ft 512 kts 83°
2026-04-26 21:10 55.40434 -36.89504 36690 ft 514 kts 83°
2026-04-26 21:10 55.41858 -36.77193 36694 ft 515 kts 83°
2026-04-26 21:11 55.43266 -36.64909 36684 ft 515 kts 83°
2026-04-26 21:11 55.44657 -36.52628 36693 ft 517 kts 84°
2026-04-26 21:12 55.46051 -36.40208 36698 ft 517 kts 83°
2026-04-26 21:12 55.47425 -36.27866 36711 ft 518 kts 84°
2026-04-26 21:13 55.48795 -36.15429 36719 ft 518 kts 84°
2026-04-26 21:13 55.50144 -36.03062 36727 ft 517 kts 85°
2026-04-26 21:14 55.51485 -35.90622 36726 ft 519 kts 85°
2026-04-26 21:14 55.52823 -35.78098 36719 ft 519 kts 85°
2026-04-26 21:15 55.54144 -35.65620 36725 ft 520 kts 85°
2026-04-26 21:15 55.55456 -35.53083 36737 ft 522 kts 85°
2026-04-26 21:16 55.56756 -35.40538 36741 ft 522 kts 85°
2026-04-26 21:16 55.58038 -35.28050 36739 ft 521 kts 86°
2026-04-26 21:17 55.59307 -35.15510 36743 ft 524 kts 86°
2026-04-26 21:17 55.60575 -35.02874 36739 ft 523 kts 86°
2026-04-26 21:18 55.61824 -34.90261 36753 ft 525 kts 86°
2026-04-26 21:18 55.63075 -34.77514 36751 ft 527 kts 87°
2026-04-26 21:19 55.64307 -34.64830 36756 ft 525 kts 86°
2026-04-26 21:19 55.65526 -34.52121 36788 ft 527 kts 87°
2026-04-26 21:20 55.66738 -34.39361 36771 ft 528 kts 86°
2026-04-26 21:20 55.67938 -34.26567 36793 ft 529 kts 88°
2026-04-26 21:21 55.69118 -34.13831 36764 ft 528 kts 88°
2026-04-26 21:21 55.70291 -34.00995 36809 ft 531 kts 88°
2026-04-26 21:22 55.71449 -33.88213 36804 ft 529 kts 88°
2026-04-26 21:22 55.72599 -33.75371 36795 ft 528 kts 88°
2026-04-26 21:23 55.73732 -33.62498 36643 ft 529 kts 87°
2026-04-26 21:23 55.74291 -33.56116 36728 ft 529 kts 88°
2026-04-26 21:23 55.75412 -33.43171 36767 ft 531 kts 88°
2026-04-26 21:24 55.76510 -33.30371 36793 ft 529 kts 88°
2026-04-26 21:24 55.77595 -33.17504 36798 ft 530 kts 88°
2026-04-26 21:25 55.78672 -33.04575 36795 ft 532 kts 88°
2026-04-26 21:25 55.79735 -32.91658 36797 ft 532 kts 88°
2026-04-26 21:26 55.80788 -32.78714 36801 ft 532 kts 88°
2026-04-26 21:26 55.81829 -32.65734 36814 ft 532 kts 88°
2026-04-26 21:27 55.82851 -32.52813 36818 ft 530 kts 88°
2026-04-26 21:27 55.83862 -32.39816 36831 ft 531 kts 88°
2026-04-26 21:28 55.84857 -32.26874 36837 ft 531 kts 89°
2026-04-26 21:28 55.85839 -32.13885 36838 ft 532 kts 89°
2026-04-26 21:29 55.86808 -32.00933 36843 ft 531 kts 89°
2026-04-26 21:29 55.87757 -31.88046 36840 ft 530 kts 89°
2026-04-26 21:30 55.88694 -31.75058 36839 ft 531 kts 89°
2026-04-26 21:30 55.89468 -31.64251 36852 ft 531 kts 88°
2026-04-26 21:31 55.90537 -31.49079 36842 ft 532 kts 88°
2026-04-26 21:31 55.91439 -31.36034 36853 ft 533 kts 88°
2026-04-26 21:32 55.92332 -31.22972 36837 ft 531 kts 89°
2026-04-26 21:32 55.93196 -31.10052 36853 ft 532 kts 89°
2026-04-26 21:33 55.94058 -30.96972 36861 ft 532 kts 89°
2026-04-26 21:33 55.94906 -30.83954 36859 ft 530 kts 89°
2026-04-26 21:34 55.95740 -30.70864 36870 ft 530 kts 89°
2026-04-26 21:34 55.96554 -30.57884 36861 ft 530 kts 89°
2026-04-26 21:35 55.97355 -30.44820 36876 ft 533 kts 89°
2026-04-26 21:35 55.98153 -30.31733 36873 ft 529 kts 90°
2026-04-26 21:36 55.98798 -30.20877 36878 ft 529 kts 90°
2026-04-26 21:36 55.99677 -30.05737 36890 ft 530 kts 90°
2026-04-26 21:37 56.00358 -29.92631 36892 ft 529 kts 91°
2026-04-26 21:37 56.00858 -29.79617 36901 ft 527 kts 92°
2026-04-26 21:38 56.01331 -29.66691 36896 ft 528 kts 92°
2026-04-26 21:38 56.01808 -29.53640 36898 ft 529 kts 91°
2026-04-26 21:39 56.02281 -29.40472 36909 ft 529 kts 91°
2026-04-26 21:39 56.02739 -29.27425 36905 ft 531 kts 92°
2026-04-26 21:40 56.03189 -29.14286 36911 ft 530 kts 92°
2026-04-26 21:40 56.03621 -29.01223 36913 ft 530 kts 92°
2026-04-26 21:41 56.04040 -28.88118 36909 ft 530 kts 91°
2026-04-26 21:41 56.04446 -28.74974 36918 ft 530 kts 91°
2026-04-26 21:42 56.04833 -28.61921 36920 ft 530 kts 91°
2026-04-26 21:42 56.05210 -28.48788 36923 ft 531 kts 91°
2026-04-26 21:43 56.05577 -28.35610 36928 ft 531 kts 91°
2026-04-26 21:43 56.05926 -28.22543 36931 ft 531 kts 92°
2026-04-26 21:44 56.06261 -28.09429 36940 ft 530 kts 91°
2026-04-26 21:44 56.06579 -27.96365 36942 ft 530 kts 91°
2026-04-26 21:45 56.06889 -27.83176 36945 ft 531 kts 91°
2026-04-26 21:45 56.07183 -27.70001 36956 ft 531 kts 91°
2026-04-26 21:46 56.07461 -27.56936 36957 ft 531 kts 91°
2026-04-26 21:46 56.07730 -27.43740 36957 ft 531 kts 91°
2026-04-26 21:47 56.07980 -27.30629 36967 ft 531 kts 92°
2026-04-26 21:47 56.08219 -27.17411 36971 ft 532 kts 92°
2026-04-26 21:48 56.08443 -27.04229 36976 ft 531 kts 91°
2026-04-26 21:48 56.08652 -26.91065 36985 ft 532 kts 91°
2026-04-26 21:49 56.08851 -26.77863 36987 ft 532 kts 91°
2026-04-26 21:49 56.09032 -26.64703 36996 ft 532 kts 91°
2026-04-26 21:50 56.09174 -26.53783 37003 ft 531 kts 91°
2026-04-26 21:50 56.09354 -26.38400 36998 ft 531 kts 91°
2026-04-26 21:51 56.09497 -26.25235 37006 ft 530 kts 92°
2026-04-26 21:51 56.09621 -26.12185 37008 ft 530 kts 91°
2026-04-26 21:52 56.09733 -25.99047 37023 ft 530 kts 91°
2026-04-26 21:52 56.09831 -25.85852 37026 ft 529 kts 91°
2026-04-26 21:53 56.09913 -25.72794 37037 ft 530 kts 91°
2026-04-26 21:53 56.09984 -25.59635 37039 ft 530 kts 91°
2026-04-26 21:54 56.10059 -25.46443 37047 ft 530 kts 91°
2026-04-26 21:54 56.10131 -25.33365 37046 ft 530 kts 92°
2026-04-26 21:55 56.10171 -25.20229 37055 ft 530 kts 92°
2026-04-26 21:55 56.10189 -25.07052 37055 ft 530 kts 92°
2026-04-26 21:56 56.10191 -24.93957 37052 ft 529 kts 92°
2026-04-26 21:56 56.10175 -24.80826 37069 ft 530 kts 92°
2026-04-26 21:57 56.10148 -24.67716 37067 ft 530 kts 91°
2026-04-26 21:57 56.10106 -24.54565 37077 ft 530 kts 91°
2026-04-26 21:58 56.10052 -24.41433 37087 ft 529 kts 91°
2026-04-26 21:58 56.09985 -24.28294 37090 ft 529 kts 92°
2026-04-26 21:59 56.09901 -24.15201 37090 ft 529 kts 92°
2026-04-26 21:59 56.09805 -24.02073 37102 ft 529 kts 92°
2026-04-26 22:00 56.09693 -23.88979 37107 ft 528 kts 92°
2026-04-26 22:00 56.09569 -23.75895 37113 ft 529 kts 92°
2026-04-26 22:01 56.09429 -23.62746 37117 ft 529 kts 92°
2026-04-26 22:01 56.09277 -23.49649 37120 ft 528 kts 91°
2026-04-26 22:02 56.09139 -23.38791 37121 ft 528 kts 91°
2026-04-26 22:02 56.08934 -23.23552 37120 ft 528 kts 92°
2026-04-26 22:03 56.08741 -23.10470 37127 ft 528 kts 92°
2026-04-26 22:03 56.08534 -22.97415 37128 ft 528 kts 92°
2026-04-26 22:04 56.08312 -22.84324 37143 ft 527 kts 92°
2026-04-26 22:04 56.08077 -22.71253 37139 ft 527 kts 91°
2026-04-26 22:05 56.07829 -22.58179 37150 ft 527 kts 92°
2026-04-26 22:05 56.07565 -22.45116 37151 ft 527 kts 91°
2026-04-26 22:06 56.07290 -22.32084 37161 ft 528 kts 92°
2026-04-26 22:06 56.06999 -22.18998 37155 ft 528 kts 92°
2026-04-26 22:07 56.06695 -22.05954 37147 ft 527 kts 92°
2026-04-26 22:07 56.06433 -21.95050 37155 ft 528 kts 92°
2026-04-26 22:08 56.06045 -21.79826 37160 ft 528 kts 92°
2026-04-26 22:08 56.05701 -21.66796 37161 ft 528 kts 92°
2026-04-26 22:09 56.05342 -21.53725 37162 ft 528 kts 92°
2026-04-26 22:09 56.04967 -21.40612 37162 ft 529 kts 91°
2026-04-26 22:10 56.04581 -21.27623 37168 ft 528 kts 92°
2026-04-26 22:10 56.04180 -21.14517 37167 ft 528 kts 92°
2026-04-26 22:11 56.03764 -21.01448 37160 ft 528 kts 92°
2026-04-26 22:11 56.03337 -20.88450 37164 ft 529 kts 92°
2026-04-26 22:12 56.02890 -20.75322 37167 ft 529 kts 92°
2026-04-26 22:12 56.02432 -20.62293 37171 ft 529 kts 92°
2026-04-26 22:13 56.01960 -20.49307 37180 ft 529 kts 92°
2026-04-26 22:13 56.01471 -20.36218 37176 ft 529 kts 92°
2026-04-26 22:14 56.00963 -20.23142 37181 ft 529 kts 93°
2026-04-26 22:14 56.00426 -20.10173 37178 ft 529 kts 94°
2026-04-26 22:15 55.99323 -19.97158 37190 ft 530 kts 101°
2026-04-26 22:15 55.97389 -19.84527 37195 ft 530 kts 107°
2026-04-26 22:16 55.95161 -19.72104 37193 ft 530 kts 108°
2026-04-26 22:16 55.92898 -19.59553 37192 ft 530 kts 107°
2026-04-26 22:17 55.90669 -19.47176 37193 ft 530 kts 107°
2026-04-26 22:17 55.88407 -19.34748 37183 ft 529 kts 108°
2026-04-26 22:18 55.86123 -19.22338 37182 ft 530 kts 108°
2026-04-26 22:18 55.83836 -19.09898 37198 ft 529 kts 108°
2026-04-26 22:19 55.81566 -18.97585 37201 ft 529 kts 107°
2026-04-26 22:19 55.79277 -18.85252 37212 ft 529 kts 107°
2026-04-26 22:20 55.77346 -18.74901 37191 ft 528 kts 107°
2026-04-26 22:20 55.74649 -18.60545 37195 ft 528 kts 107°
2026-04-26 22:21 55.72316 -18.48215 37205 ft 528 kts 107°
2026-04-26 22:21 55.69992 -18.36008 37199 ft 528 kts 107°
2026-04-26 22:22 55.67633 -18.23669 37208 ft 529 kts 108°
2026-04-26 22:22 55.65279 -18.11444 37232 ft 528 kts 108°
2026-04-26 22:23 55.62911 -17.99237 37199 ft 529 kts 108°
2026-04-26 22:23 55.60519 -17.86989 37228 ft 529 kts 108°
2026-04-26 22:24 55.58110 -17.74741 37232 ft 529 kts 108°
2026-04-26 22:24 55.55703 -17.62573 37230 ft 527 kts 108°
2026-04-26 22:25 55.53281 -17.50403 37227 ft 528 kts 108°
2026-04-26 22:25 55.50845 -17.38245 37246 ft 527 kts 108°
2026-04-26 22:26 55.48411 -17.26144 37227 ft 526 kts 108°
2026-04-26 22:26 55.45956 -17.14012 37236 ft 526 kts 108°
2026-04-26 22:27 55.43513 -17.02033 37241 ft 525 kts 108°
2026-04-26 22:27 55.41035 -16.89948 37238 ft 525 kts 108°
2026-04-26 22:28 55.38550 -16.77915 37243 ft 525 kts 108°
2026-04-26 22:28 55.36070 -16.65975 37236 ft 524 kts 108°
2026-04-26 22:29 55.33561 -16.53964 37228 ft 525 kts 108°
2026-04-26 22:29 55.31052 -16.42030 37247 ft 524 kts 108°
2026-04-26 22:30 55.28532 -16.30110 37243 ft 524 kts 109°
2026-04-26 22:30 55.26003 -16.18189 37256 ft 525 kts 109°
2026-04-26 22:31 55.23450 -16.06250 37258 ft 524 kts 109°
2026-04-26 22:31 55.20898 -15.94392 37241 ft 524 kts 109°
2026-04-26 22:32 55.18319 -15.82480 37243 ft 523 kts 109°
2026-04-26 22:32 55.15742 -15.70653 37256 ft 524 kts 109°
2026-04-26 22:33 55.11855 -15.52941 37238 ft 523 kts 110°
2026-04-26 22:34 55.09247 -15.41152 37247 ft 523 kts 110°
2026-04-26 22:34 55.06633 -15.29408 37248 ft 523 kts 110°
2026-04-26 22:35 55.03992 -15.17578 37232 ft 523 kts 110°
2026-04-26 22:35 55.01828 -15.05648 37245 ft 521 kts 102°
2026-04-26 22:36 55.00491 -14.93265 37246 ft 519 kts 95°
2026-04-26 22:36 55.00037 -14.80837 37253 ft 516 kts 87°
2026-04-26 22:37 55.00084 -14.68406 37257 ft 515 kts 86°
2026-04-26 22:37 55.00129 -14.55945 37253 ft 515 kts 87°
2026-04-26 22:38 55.00141 -14.43584 37247 ft 515 kts 87°
2026-04-26 22:38 55.00129 -14.31129 37237 ft 515 kts 88°
2026-04-26 22:39 55.00103 -14.18726 37259 ft 515 kts 88°
2026-04-26 22:39 54.99792 -14.06308 37244 ft 517 kts 94°
2026-04-26 22:40 54.98684 -13.94005 37251 ft 518 kts 101°
2026-04-26 22:40 54.96771 -13.81971 37258 ft 519 kts 107°
2026-04-26 22:41 54.94540 -13.70091 37261 ft 519 kts 107°
2026-04-26 22:41 54.92303 -13.58222 37261 ft 518 kts 107°
2026-04-26 22:42 54.90066 -13.46355 37259 ft 518 kts 107°
2026-04-26 22:42 54.87817 -13.34617 37255 ft 517 kts 108°
2026-04-26 22:43 54.85544 -13.22781 37263 ft 517 kts 108°
2026-04-26 22:43 54.83289 -13.11025 37264 ft 517 kts 108°
2026-04-26 22:44 54.81020 -12.99251 37259 ft 516 kts 108°
2026-04-26 22:44 54.78750 -12.87545 37257 ft 516 kts 108°
2026-04-26 22:45 54.76458 -12.75793 37256 ft 516 kts 108°
2026-04-26 22:45 54.74170 -12.64133 37255 ft 515 kts 108°
2026-04-26 22:46 54.71860 -12.52430 37246 ft 515 kts 108°
2026-04-26 22:46 54.69558 -12.40843 37253 ft 515 kts 108°
2026-04-26 22:47 54.67238 -12.29209 37251 ft 514 kts 109°
2026-04-26 22:47 54.64910 -12.17592 37252 ft 514 kts 109°
2026-04-26 22:48 54.62563 -12.05966 37246 ft 513 kts 109°
2026-04-26 22:48 54.60209 -11.94384 37255 ft 513 kts 109°
2026-04-26 22:49 54.57860 -11.82897 37252 ft 513 kts 109°
2026-04-26 22:49 54.55486 -11.71359 37260 ft 513 kts 109°
2026-04-26 22:50 54.53093 -11.59787 37254 ft 513 kts 109°
2026-04-26 22:50 54.50698 -11.48274 37268 ft 513 kts 109°
2026-04-26 22:51 54.48300 -11.36816 37264 ft 513 kts 109°
2026-04-26 22:51 54.45895 -11.25367 37275 ft 513 kts 110°
2026-04-26 22:52 54.43471 -11.13886 37275 ft 512 kts 110°
2026-04-26 22:52 54.41034 -11.02427 37283 ft 512 kts 110°
2026-04-26 22:53 54.38602 -10.91063 37284 ft 512 kts 110°
2026-04-26 22:53 54.36137 -10.79606 37284 ft 511 kts 110°
2026-04-26 22:54 54.33676 -10.68234 37285 ft 511 kts 110°
2026-04-26 22:54 54.31204 -10.56878 37285 ft 511 kts 111°
2026-04-26 22:55 54.28729 -10.45569 37285 ft 511 kts 111°
2026-04-26 22:55 54.26239 -10.34254 37290 ft 510 kts 111°
2026-04-26 22:56 54.23751 -10.22974 37291 ft 509 kts 112°
2026-04-26 22:56 54.21247 -10.11698 37291 ft 508 kts 112°
2026-04-26 22:57 54.18740 -10.00482 37289 ft 508 kts 112°
2026-04-26 22:57 54.16222 -9.89289 37298 ft 508 kts 112°
2026-04-26 22:58 54.13696 -9.78115 37298 ft 507 kts 112°
2026-04-26 22:58 54.11163 -9.66970 37286 ft 507 kts 112°
2026-04-26 22:59 54.08619 -9.55832 37286 ft 506 kts 112°
2026-04-26 22:59 54.06079 -9.44773 37286 ft 506 kts 112°
2026-04-26 23:00 54.03508 -9.33638 37280 ft 505 kts 113°
2026-04-26 23:00 54.00948 -9.22575 37289 ft 505 kts 113°
2026-04-26 23:01 53.98385 -9.11565 37285 ft 504 kts 113°
2026-04-26 23:01 53.95814 -9.00595 37286 ft 504 kts 113°
2026-04-26 23:02 53.93216 -8.89569 37285 ft 503 kts 113°
2026-04-26 23:02 53.90614 -8.78585 37274 ft 503 kts 113°
2026-04-26 23:03 53.88000 -8.67685 37277 ft 503 kts 114°
2026-04-26 23:03 53.85357 -8.56752 37271 ft 503 kts 114°
2026-04-26 23:04 53.82708 -8.45796 37270 ft 503 kts 114°
2026-04-26 23:04 53.80076 -8.34913 37270 ft 503 kts 114°
2026-04-26 23:05 53.77448 -8.24067 37267 ft 502 kts 115°
2026-04-26 23:05 53.74794 -8.13180 37265 ft 502 kts 115°
2026-04-26 23:06 53.72147 -8.02377 37265 ft 501 kts 115°
2026-04-26 23:06 53.69478 -7.91555 37264 ft 501 kts 115°
2026-04-26 23:07 53.66794 -7.80728 37266 ft 501 kts 115°
2026-04-26 23:07 53.64124 -7.70006 37261 ft 501 kts 115°
2026-04-26 23:08 53.61420 -7.59198 37267 ft 500 kts 115°
2026-04-26 23:08 53.58718 -7.48456 37267 ft 500 kts 115°
2026-04-26 23:09 53.56008 -7.37730 37270 ft 500 kts 115°
2026-04-26 23:09 53.53297 -7.27030 37264 ft 499 kts 116°
2026-04-26 23:10 53.50594 -7.16406 37271 ft 499 kts 116°
2026-04-26 23:10 53.47850 -7.05694 37266 ft 499 kts 116°
2026-04-26 23:11 53.45130 -6.95129 37273 ft 499 kts 116°
2026-04-26 23:11 53.42383 -6.84511 37278 ft 499 kts 116°
2026-04-26 23:12 53.39606 -6.73838 37270 ft 499 kts 116°
2026-04-26 23:12 53.36849 -6.63283 37281 ft 499 kts 116°
2026-04-26 23:13 53.34068 -6.52685 37277 ft 499 kts 116°
2026-04-26 23:13 53.31288 -6.42148 37275 ft 499 kts 116°
2026-04-26 23:14 53.28475 -6.31527 37285 ft 499 kts 117°
2026-04-26 23:14 53.25689 -6.21024 37280 ft 498 kts 117°
2026-04-26 23:15 53.22870 -6.10472 37288 ft 498 kts 117°
2026-04-26 23:15 53.20059 -6.00009 37281 ft 499 kts 117°
2026-04-26 23:16 53.17227 -5.89529 37274 ft 499 kts 117°
2026-04-26 23:16 53.14369 -5.79005 37283 ft 498 kts 117°
2026-04-26 23:17 53.11512 -5.68548 37284 ft 498 kts 117°
2026-04-26 23:17 53.08649 -5.58105 37284 ft 498 kts 117°
2026-04-26 23:18 53.05555 -5.47929 37281 ft 495 kts 123°
2026-04-26 23:18 53.01902 -5.38239 37285 ft 494 kts 126°
2026-04-26 23:19 52.98185 -5.28689 37277 ft 494 kts 126°
2026-04-26 23:19 52.94482 -5.19192 37274 ft 494 kts 126°
2026-04-26 23:20 52.90765 -5.09701 37273 ft 493 kts 126°
2026-04-26 23:20 52.87004 -5.00189 37269 ft 493 kts 127°
2026-04-26 23:21 52.83261 -4.90783 37272 ft 494 kts 127°
2026-04-26 23:21 52.79478 -4.81271 37273 ft 494 kts 126°
2026-04-26 23:22 52.75744 -4.71896 37271 ft 494 kts 126°
2026-04-26 23:22 52.71955 -4.62413 37271 ft 495 kts 126°
2026-04-26 23:23 52.68185 -4.53013 37270 ft 494 kts 126°
2026-04-26 23:23 52.64391 -4.43587 37274 ft 495 kts 126°
2026-04-26 23:24 52.60608 -4.34224 37272 ft 495 kts 127°
2026-04-26 23:24 52.56813 -4.24831 37273 ft 495 kts 127°
2026-04-26 23:25 52.53020 -4.15485 37272 ft 495 kts 127°
2026-04-26 23:25 52.49192 -4.06107 37275 ft 495 kts 127°
2026-04-26 23:26 52.45384 -3.96815 37269 ft 494 kts 127°
2026-04-26 23:26 52.41541 -3.87473 37273 ft 494 kts 127°
2026-04-26 23:27 52.37694 -3.78159 37274 ft 494 kts 127°
2026-04-26 23:27 52.33854 -3.68889 37272 ft 495 kts 127°
2026-04-26 23:28 52.29987 -3.59594 37271 ft 494 kts 127°
2026-04-26 23:28 52.26128 -3.50351 37273 ft 495 kts 127°
2026-04-26 23:29 52.22272 -3.41147 37275 ft 495 kts 127°
2026-04-26 23:29 52.18395 -3.31920 37272 ft 494 kts 128°
2026-04-26 23:30 52.14529 -3.22726 37277 ft 495 kts 128°
2026-04-26 23:30 52.10635 -3.13512 37275 ft 494 kts 128°
2026-04-26 23:31 52.06728 -3.04318 37277 ft 494 kts 128°
2026-04-26 23:31 52.02834 -2.95188 37278 ft 495 kts 128°
2026-04-26 23:32 51.98937 -2.86092 37278 ft 495 kts 127°
2026-04-26 23:32 51.95012 -2.76956 37279 ft 495 kts 127°
2026-04-26 23:33 51.91075 -2.67826 37274 ft 496 kts 127°
2026-04-26 23:33 51.87133 -2.58755 37278 ft 496 kts 128°
2026-04-26 23:34 51.83147 -2.49637 37283 ft 496 kts 127°
2026-04-26 23:34 51.79188 -2.40574 37279 ft 497 kts 127°
2026-04-26 23:35 51.75246 -2.31556 37281 ft 497 kts 128°
2026-04-26 23:35 51.71270 -2.22465 37282 ft 497 kts 128°
2026-04-26 23:36 51.67268 -2.13365 37276 ft 498 kts 128°
2026-04-26 23:36 51.63281 -2.04346 37287 ft 497 kts 128°
2026-04-26 23:37 51.59257 -1.95278 37289 ft 497 kts 128°
2026-04-26 23:37 51.55249 -1.86287 37285 ft 498 kts 128°
2026-04-26 23:38 51.51212 -1.77262 37291 ft 498 kts 127°
2026-04-26 23:38 51.47359 -1.68015 37288 ft 500 kts 122°
2026-04-26 23:39 51.44122 -1.58191 37289 ft 501 kts 116°
2026-04-26 23:39 51.41180 -1.48120 37289 ft 502 kts 116°
2026-04-26 23:40 51.38204 -1.38018 37287 ft 502 kts 116°
2026-04-26 23:40 51.35219 -1.27956 37291 ft 502 kts 118°
2026-04-26 23:41 51.31850 -1.18277 37293 ft 500 kts 124°
2026-04-26 23:41 51.27797 -1.09389 37299 ft 499 kts 129°
2026-04-26 23:42 51.23553 -1.00550 37298 ft 500 kts 129°
2026-04-26 23:42 51.17286 -0.87331 37298 ft 500 kts 129°
2026-04-26 23:43 51.13090 -0.78535 37298 ft 500 kts 129°
2026-04-26 23:43 51.08781 -0.69952 37298 ft 500 kts 133°
2026-04-26 23:44 51.03895 -0.62057 37295 ft 498 kts 140°
2026-04-26 23:44 50.98559 -0.55185 37298 ft 495 kts 146°
2026-04-26 23:45 50.93802 -0.50079 37294 ft 495 kts 148°
2026-04-26 23:45 50.87147 -0.43058 37294 ft 495 kts 148°
2026-04-26 23:46 50.81420 -0.37018 37292 ft 495 kts 148°
2026-04-26 23:46 50.75732 -0.30997 37297 ft 495 kts 149°
2026-04-26 23:47 50.70013 -0.24946 37293 ft 495 kts 149°
2026-04-26 23:47 50.64314 -0.18943 37294 ft 495 kts 149°
2026-04-26 23:48 50.58571 -0.12933 37289 ft 495 kts 149°
2026-04-26 23:48 50.52842 -0.06964 37289 ft 495 kts 149°
2026-04-26 23:49 50.47119 -0.01026 37285 ft 496 kts 149°
2026-04-26 23:49 50.41376 0.04930 37284 ft 496 kts 149°
2026-04-26 23:50 50.35647 0.10858 37279 ft 496 kts 149°
2026-04-26 23:50 50.29886 0.16806 37281 ft 496 kts 149°
2026-04-26 23:51 50.24151 0.22694 37282 ft 496 kts 149°
2026-04-26 23:51 50.18397 0.28598 37275 ft 497 kts 148°
2026-04-26 23:52 50.12652 0.34524 37278 ft 497 kts 148°
2026-04-26 23:52 50.06924 0.40400 37275 ft 497 kts 148°
2026-04-26 23:53 50.01160 0.46282 37278 ft 497 kts 148°
2026-04-26 23:53 49.95381 0.52157 37272 ft 497 kts 148°
2026-04-26 23:54 49.89667 0.58135 37276 ft 498 kts 145°
2026-04-26 23:54 49.84295 0.64915 37270 ft 500 kts 139°
2026-04-26 23:55 49.79419 0.72570 37271 ft 501 kts 134°
2026-04-26 23:55 49.74732 0.80566 37266 ft 502 kts 134°
2026-04-26 23:56 49.70048 0.88498 37264 ft 502 kts 134°
2026-04-26 23:56 49.65335 0.96435 37259 ft 502 kts 134°
2026-04-26 23:57 49.60626 1.04333 37262 ft 502 kts 134°
2026-04-26 23:57 49.55909 1.12221 37255 ft 502 kts 134°
2026-04-26 23:58 49.51208 1.20059 37251 ft 502 kts 134°
2026-04-26 23:58 49.46444 1.27976 37254 ft 502 kts 134°
2026-04-26 23:59 49.41713 1.35815 37250 ft 503 kts 134°
2026-04-26 23:59 49.36976 1.43640 37244 ft 503 kts 134°
2026-04-27 00:00 49.32200 1.51505 37236 ft 503 kts 133°
2026-04-27 00:00 49.27428 1.59339 37235 ft 504 kts 133°
2026-04-27 00:01 49.22687 1.67102 37229 ft 504 kts 134°
2026-04-27 00:01 49.17896 1.74954 37227 ft 504 kts 134°
2026-04-27 00:02 49.13130 1.82724 37225 ft 504 kts 134°
2026-04-27 00:02 49.08325 1.90522 37218 ft 505 kts 134°
2026-04-27 00:03 49.03545 1.98253 37224 ft 505 kts 134°
2026-04-27 00:03 48.98724 2.06023 37224 ft 505 kts 134°
2026-04-27 00:04 48.93897 2.13780 37224 ft 505 kts 134°
2026-04-27 00:04 48.89060 2.21527 37223 ft 505 kts 134°
2026-04-27 00:05 48.84202 2.29236 37223 ft 505 kts 134°
2026-04-27 00:05 48.79370 2.36902 37221 ft 505 kts 134°
2026-04-27 00:06 48.74549 2.44549 37223 ft 505 kts 134°
2026-04-27 00:06 48.69702 2.52214 37220 ft 505 kts 134°
2026-04-27 00:07 48.64849 2.59869 37221 ft 505 kts 134°
2026-04-27 00:07 48.60228 2.67873 37215 ft 505 kts 125°
2026-04-27 00:08 48.56880 2.77042 37215 ft 504 kts 111°
2026-04-27 00:08 48.54980 2.87106 37211 ft 502 kts 97°
2026-04-27 00:09 48.54445 2.97558 37211 ft 500 kts 90°
2026-04-27 00:09 48.54161 3.08013 37212 ft 501 kts 91°
2026-04-27 00:10 48.53818 3.18484 37212 ft 501 kts 91°
2026-04-27 00:10 48.53444 3.28947 37209 ft 501 kts 91°
2026-04-27 00:11 48.53059 3.39365 37206 ft 501 kts 91°
2026-04-27 00:11 48.52661 3.49826 37204 ft 501 kts 91°
2026-04-27 00:12 48.52253 3.60262 37206 ft 501 kts 91°
2026-04-27 00:12 48.51836 3.70660 37204 ft 501 kts 92°
2026-04-27 00:13 48.51405 3.81118 37205 ft 501 kts 92°
2026-04-27 00:13 48.50964 3.91569 37209 ft 501 kts 92°
2026-04-27 00:14 48.50230 4.01991 37204 ft 502 kts 98°
2026-04-27 00:14 48.48751 4.12207 37208 ft 503 kts 104°
2026-04-27 00:15 48.46899 4.22302 37205 ft 503 kts 104°
2026-04-27 00:15 48.45027 4.32418 37205 ft 503 kts 104°
2026-04-27 00:16 48.43162 4.42507 37208 ft 503 kts 104°
2026-04-27 00:16 48.41289 4.52615 37208 ft 503 kts 104°
2026-04-27 00:17 48.39411 4.62692 37208 ft 503 kts 104°
2026-04-27 00:17 48.37524 4.72790 37207 ft 503 kts 105°
2026-04-27 00:18 48.35620 4.82916 37208 ft 503 kts 105°
2026-04-27 00:18 48.33716 4.92953 37211 ft 503 kts 105°
2026-04-27 00:19 48.31795 5.03006 37211 ft 503 kts 105°
2026-04-27 00:19 48.29863 5.13062 37211 ft 503 kts 105°
2026-04-27 00:20 48.27905 5.23103 37212 ft 503 kts 105°
2026-04-27 00:20 48.25899 5.33124 37214 ft 503 kts 105°
2026-04-27 00:21 48.23877 5.43136 37211 ft 503 kts 105°
2026-04-27 00:21 48.21858 5.53080 37207 ft 503 kts 105°
2026-04-27 00:22 48.19814 5.63093 37214 ft 503 kts 105°
2026-04-27 00:22 48.17782 5.73021 37207 ft 502 kts 106°
2026-04-27 00:23 48.15731 5.82993 37209 ft 502 kts 106°
2026-04-27 00:23 48.13666 5.92969 37210 ft 502 kts 106°
2026-04-27 00:24 48.11589 6.02938 37209 ft 503 kts 106°
2026-04-27 00:24 48.09508 6.12880 37208 ft 503 kts 106°
2026-04-27 00:25 48.07422 6.22792 37204 ft 503 kts 106°
2026-04-27 00:25 48.05322 6.32715 37206 ft 503 kts 106°
2026-04-27 00:26 48.03218 6.42597 37209 ft 502 kts 106°
2026-04-27 00:26 48.01091 6.52517 37207 ft 502 kts 106°
2026-04-27 00:27 47.98972 6.62358 37208 ft 502 kts 106°
2026-04-27 00:27 47.96646 6.72189 37208 ft 503 kts 111°
2026-04-27 00:28 47.94055 6.81843 37203 ft 503 kts 111°
2026-04-27 00:28 47.91435 6.91469 37210 ft 503 kts 111°
2026-04-27 00:29 47.88804 7.01072 37208 ft 503 kts 111°
2026-04-27 00:29 47.86140 7.10677 37195 ft 503 kts 111°
2026-04-27 00:30 47.83490 7.20263 37202 ft 503 kts 111°
2026-04-27 00:30 47.80838 7.29845 37199 ft 503 kts 111°
2026-04-27 00:31 47.78188 7.39392 37201 ft 503 kts 111°
2026-04-27 00:31 47.75440 7.48928 37196 ft 504 kts 114°
2026-04-27 00:32 47.72093 7.58058 37192 ft 504 kts 121°
2026-04-27 00:32 47.68132 7.66522 37206 ft 504 kts 126°
2026-04-27 00:33 47.63962 7.74885 37200 ft 504 kts 126°
2026-04-27 00:33 47.59800 7.83224 37199 ft 504 kts 126°
2026-04-27 00:34 47.55651 7.91521 37200 ft 504 kts 126°
2026-04-27 00:34 47.51475 7.99854 37201 ft 504 kts 126°
2026-04-27 00:35 47.47305 8.08146 37189 ft 504 kts 126°
2026-04-27 00:35 47.43134 8.16413 37193 ft 504 kts 126°
2026-04-27 00:36 47.38954 8.24674 37192 ft 504 kts 126°
2026-04-27 00:36 47.34773 8.32907 37197 ft 504 kts 126°
2026-04-27 00:37 47.30570 8.41151 37198 ft 505 kts 126°
2026-04-27 00:37 47.26344 8.49418 37197 ft 510 kts 126°
2026-04-27 00:38 47.22176 8.57814 37195 ft 511 kts 124°
2026-04-27 00:38 47.18024 8.66277 37193 ft 512 kts 125°
2026-04-27 00:39 47.13867 8.74719 37194 ft 512 kts 125°
2026-04-27 00:39 47.09670 8.83176 37201 ft 512 kts 125°
2026-04-27 00:40 47.05478 8.91577 37233 ft 512 kts 125°
2026-04-27 00:40 47.01301 8.99918 37278 ft 512 kts 125°
2026-04-27 00:41 46.97084 9.08307 37298 ft 511 kts 125°
2026-04-27 00:41 46.92873 9.16664 37277 ft 511 kts 125°
2026-04-27 00:42 46.88678 9.24953 37256 ft 511 kts 125°
2026-04-27 00:42 46.84434 9.33257 37239 ft 511 kts 125°
2026-04-27 00:43 46.80193 9.41563 37230 ft 511 kts 125°
2026-04-27 00:43 46.75942 9.49887 37231 ft 511 kts 125°
2026-04-27 00:44 46.71720 9.58136 37242 ft 511 kts 125°
2026-04-27 00:44 46.67483 9.66394 37250 ft 512 kts 126°
2026-04-27 00:45 46.63222 9.74697 37264 ft 511 kts 126°
2026-04-27 00:45 46.58981 9.82915 37277 ft 511 kts 126°
2026-04-27 00:46 46.54704 9.91157 37285 ft 511 kts 126°
2026-04-27 00:46 46.50402 9.99263 37287 ft 512 kts 129°
2026-04-27 00:47 46.45592 10.06815 37276 ft 512 kts 135°
2026-04-27 00:47 46.40217 10.13602 37247 ft 513 kts 140°
2026-04-27 00:48 46.34736 10.20117 37225 ft 513 kts 140°
2026-04-27 00:48 46.29232 10.26664 37209 ft 513 kts 140°
2026-04-27 00:49 46.23762 10.33171 37205 ft 513 kts 140°
2026-04-27 00:49 46.18259 10.39705 37209 ft 513 kts 140°
2026-04-27 00:50 46.09998 10.49476 37216 ft 513 kts 140°
2026-04-27 00:51 46.04518 10.55930 37213 ft 512 kts 140°
2026-04-27 00:51 45.98992 10.62418 37208 ft 512 kts 139°
2026-04-27 00:52 45.93583 10.69056 37208 ft 512 kts 136°
2026-04-27 00:52 45.88656 10.76370 37206 ft 511 kts 131°
2026-04-27 00:53 45.83868 10.83787 37199 ft 511 kts 131°
2026-04-27 00:53 45.79019 10.91262 37189 ft 511 kts 131°
2026-04-27 00:54 45.74206 10.98665 37185 ft 511 kts 131°
2026-04-27 00:54 45.69383 11.06063 37183 ft 511 kts 131°
2026-04-27 00:55 45.64546 11.13464 37174 ft 511 kts 131°
2026-04-27 00:55 45.59698 11.20860 37163 ft 510 kts 131°
2026-04-27 00:56 45.54851 11.28235 37161 ft 510 kts 131°
2026-04-27 00:56 45.50002 11.35595 37145 ft 510 kts 131°
2026-04-27 00:57 45.45162 11.42919 37145 ft 510 kts 131°
2026-04-27 00:57 45.40331 11.50212 37131 ft 510 kts 131°
2026-04-27 00:58 45.35461 11.57544 37129 ft 510 kts 131°
2026-04-27 00:58 45.30591 11.64854 37121 ft 510 kts 131°
2026-04-27 00:59 45.25727 11.72164 37616 ft 506 kts 132°
2026-04-27 00:59 45.23355 11.75724 38111 ft 501 kts 132°
2026-04-27 00:59 45.20961 11.79305 38470 ft 498 kts 132°
2026-04-27 00:59 45.18582 11.82857 38685 ft 497 kts 132°
2026-04-27 01:00 45.16219 11.86376 38843 ft 497 kts 132°
2026-04-27 01:00 45.13849 11.89901 38981 ft 497 kts 133°
2026-04-27 01:00 45.11460 11.93448 39109 ft 497 kts 132°
2026-04-27 01:01 45.06710 12.00486 39108 ft 497 kts 132°
2026-04-27 01:01 45.01927 12.07555 39112 ft 497 kts 132°
2026-04-27 01:02 44.97158 12.14587 39110 ft 497 kts 132°
2026-04-27 01:02 44.92385 12.21605 39113 ft 496 kts 132°
2026-04-27 01:03 44.87608 12.28597 39110 ft 497 kts 133°
2026-04-27 01:03 44.82801 12.35583 39107 ft 496 kts 133°
2026-04-27 01:04 44.78020 12.42537 39113 ft 496 kts 133°
2026-04-27 01:04 44.73234 12.49495 39109 ft 496 kts 133°
2026-04-27 01:05 44.68444 12.56449 39110 ft 495 kts 133°
2026-04-27 01:05 44.63686 12.63339 39111 ft 495 kts 133°
2026-04-27 01:06 44.58915 12.70249 39108 ft 495 kts 133°
2026-04-27 01:06 44.54924 12.76024 39108 ft 495 kts 133°
2026-04-27 01:07 44.49337 12.84069 39109 ft 495 kts 133°
2026-04-27 01:07 44.44559 12.90922 39107 ft 495 kts 133°
2026-04-27 01:08 44.39756 12.97791 39111 ft 495 kts 133°
2026-04-27 01:08 44.35756 13.03497 39112 ft 495 kts 133°
2026-04-27 01:09 44.30119 13.11521 39109 ft 494 kts 133°
2026-04-27 01:09 44.25320 13.18332 39109 ft 494 kts 133°
2026-04-27 01:10 44.21314 13.24004 39109 ft 494 kts 133°
2026-04-27 01:10 44.16526 13.30769 39112 ft 494 kts 133°
2026-04-27 01:11 44.10886 13.38715 39111 ft 494 kts 133°
2026-04-27 01:11 44.06894 13.44326 39168 ft 493 kts 134°
2026-04-27 01:12 44.01268 13.52213 39118 ft 492 kts 133°
2026-04-27 01:12 43.96474 13.58916 39112 ft 492 kts 133°
2026-04-27 01:13 43.91672 13.65614 39030 ft 492 kts 134°
2026-04-27 01:13 43.86830 13.72359 39105 ft 493 kts 134°
2026-04-27 01:14 43.81987 13.79060 39122 ft 493 kts 134°
2026-04-27 01:14 43.77177 13.85709 39115 ft 493 kts 134°
2026-04-27 01:15 43.72334 13.92393 39121 ft 493 kts 134°
2026-04-27 01:15 43.67479 13.99076 39118 ft 493 kts 134°
2026-04-27 01:16 43.62629 14.05731 39128 ft 493 kts 134°
2026-04-27 01:16 43.58592 14.11258 39117 ft 492 kts 134°
2026-04-27 01:17 43.53008 14.19065 39128 ft 493 kts 133°
2026-04-27 01:17 43.49033 14.24719 39126 ft 493 kts 133°
2026-04-27 01:18 43.44285 14.31433 39122 ft 492 kts 133°
2026-04-27 01:18 43.38677 14.39317 39126 ft 492 kts 133°
2026-04-27 01:19 43.34696 14.44894 39130 ft 492 kts 133°
2026-04-27 01:19 43.29919 14.51571 39130 ft 492 kts 133°
2026-04-27 01:20 43.25126 14.58253 39129 ft 492 kts 133°
2026-04-27 01:20 43.20353 14.64891 39133 ft 492 kts 133°
2026-04-27 01:21 43.14761 14.72679 39128 ft 492 kts 134°
2026-04-27 01:21 43.09983 14.79312 39134 ft 492 kts 134°
2026-04-27 01:22 43.05169 14.85965 39134 ft 492 kts 134°
2026-04-27 01:22 43.00357 14.92593 39133 ft 492 kts 134°
2026-04-27 01:23 42.95559 14.99187 39131 ft 491 kts 134°
2026-04-27 01:23 42.91563 15.04664 39129 ft 492 kts 134°
2026-04-27 01:24 42.86721 15.11266 39125 ft 491 kts 134°
2026-04-27 01:24 42.81101 15.18890 39125 ft 491 kts 134°
2026-04-27 01:25 42.77076 15.24356 39128 ft 491 kts 134°
2026-04-27 01:25 42.72276 15.30871 39124 ft 491 kts 134°
2026-04-27 01:26 42.67452 15.37407 39126 ft 491 kts 134°
2026-04-27 01:26 42.62629 15.43929 39121 ft 490 kts 134°
2026-04-27 01:27 42.56993 15.51530 39120 ft 490 kts 134°
2026-04-27 01:27 42.52985 15.56923 39120 ft 490 kts 134°
2026-04-27 01:28 42.48138 15.63431 39119 ft 490 kts 134°
2026-04-27 01:28 42.42520 15.70980 39119 ft 489 kts 135°
2026-04-27 01:29 42.38516 15.76353 39120 ft 490 kts 135°
2026-04-27 01:29 42.33705 15.82780 39116 ft 489 kts 135°
2026-04-27 01:30 42.28842 15.89255 39115 ft 489 kts 135°
2026-04-27 01:30 42.23232 15.96700 39115 ft 489 kts 135°
2026-04-27 01:31 42.19178 16.02070 39110 ft 488 kts 135°
2026-04-27 01:31 42.14372 16.08422 39113 ft 488 kts 135°
2026-04-27 01:32 42.09521 16.14817 39110 ft 487 kts 135°
2026-04-27 01:32 42.03894 16.22218 39112 ft 488 kts 135°
2026-04-27 01:33 41.99063 16.28556 39110 ft 487 kts 135°
2026-04-27 01:33 41.94229 16.34886 39107 ft 487 kts 135°
2026-04-27 01:34 41.90181 16.40174 39110 ft 487 kts 135°
2026-04-27 01:34 41.85313 16.46487 39115 ft 487 kts 136°
2026-04-27 01:35 41.79675 16.53787 39114 ft 487 kts 135°
2026-04-27 01:35 41.75605 16.59059 39109 ft 487 kts 135°
2026-04-27 01:36 41.70741 16.65355 39116 ft 487 kts 136°
2026-04-27 01:36 41.65915 16.71618 39117 ft 487 kts 136°
2026-04-27 01:37 41.60236 16.78964 39116 ft 487 kts 136°
2026-04-27 01:37 41.56206 16.84154 39119 ft 487 kts 136°
2026-04-27 01:38 41.50520 16.91456 39121 ft 487 kts 136°
2026-04-27 01:38 41.45650 16.97691 39120 ft 487 kts 136°
2026-04-27 01:39 41.41577 17.02895 39118 ft 486 kts 136°
2026-04-27 01:39 41.36726 17.09082 39123 ft 487 kts 136°
2026-04-27 01:40 41.31030 17.16329 39124 ft 486 kts 136°
2026-04-27 01:40 41.26958 17.21500 39125 ft 486 kts 136°
2026-04-27 01:41 41.22083 17.27676 39124 ft 486 kts 136°
2026-04-27 01:41 41.16373 17.34894 39130 ft 486 kts 136°
2026-04-27 01:42 41.11494 17.41046 39128 ft 486 kts 136°
2026-04-27 01:42 41.07402 17.46197 39131 ft 486 kts 136°
2026-04-27 01:43 41.02531 17.52314 39131 ft 486 kts 136°
2026-04-27 01:43 40.97614 17.58477 39130 ft 486 kts 136°
2026-04-27 01:44 40.92710 17.64609 39134 ft 486 kts 136°
2026-04-27 01:44 40.87003 17.71743 39126 ft 486 kts 137°
2026-04-27 01:45 40.82923 17.76811 39132 ft 487 kts 137°
2026-04-27 01:45 40.77169 17.83948 39133 ft 486 kts 137°
2026-04-27 01:46 40.73095 17.88997 39127 ft 486 kts 137°
2026-04-27 01:46 40.68179 17.95077 39127 ft 487 kts 137°
2026-04-27 01:47 40.63227 18.01193 39127 ft 487 kts 137°
2026-04-27 01:47 40.58310 18.07249 39128 ft 487 kts 137°
2026-04-27 01:48 40.53349 18.13349 39131 ft 487 kts 137°
2026-04-27 01:48 40.47617 18.20380 39128 ft 487 kts 137°
2026-04-27 01:49 40.43474 18.25452 39130 ft 487 kts 136°
2026-04-27 01:49 40.38553 18.31463 39134 ft 487 kts 137°
2026-04-27 01:50 40.33596 18.37506 39131 ft 487 kts 136°
2026-04-27 01:50 40.27839 18.44508 39129 ft 487 kts 136°
2026-04-27 01:51 40.23693 18.49539 39131 ft 487 kts 136°
2026-04-27 01:51 40.18747 18.55531 39126 ft 487 kts 136°
2026-04-27 01:52 40.13773 18.61542 39133 ft 487 kts 136°
2026-04-27 01:52 40.08830 18.67512 39130 ft 487 kts 137°
2026-04-27 01:53 40.03042 18.74506 39127 ft 487 kts 137°
2026-04-27 01:53 39.98869 18.79520 39131 ft 487 kts 137°
2026-04-27 01:54 39.93911 18.85453 39136 ft 487 kts 137°
2026-04-27 01:54 39.88932 18.91386 39115 ft 487 kts 137°
2026-04-27 01:55 39.83935 18.97366 39083 ft 487 kts 135°
2026-04-27 01:55 39.79337 19.03811 39097 ft 487 kts 129°
2026-04-27 01:56 39.73000 19.14067 39130 ft 487 kts 128°
2026-04-27 01:56 39.68755 19.20924 39133 ft 487 kts 128°
2026-04-27 01:57 39.64516 19.27747 39117 ft 486 kts 128°
2026-04-27 01:57 39.60295 19.34521 39125 ft 486 kts 128°
2026-04-27 01:58 39.55333 19.42466 39111 ft 486 kts 128°
2026-04-27 01:58 39.51792 19.48124 39124 ft 486 kts 128°
2026-04-27 01:59 39.47537 19.54909 39119 ft 486 kts 128°
2026-04-27 01:59 39.42577 19.62799 39122 ft 486 kts 128°
2026-04-27 02:00 39.39046 19.68413 39082 ft 486 kts 128°
2026-04-27 02:00 39.34792 19.75183 39133 ft 486 kts 129°
2026-04-27 02:01 39.30521 19.81949 39111 ft 486 kts 129°
2026-04-27 02:01 39.26261 19.88675 39095 ft 486 kts 129°
2026-04-27 02:02 39.21963 19.95441 39125 ft 486 kts 129°
2026-04-27 02:02 39.17706 20.02127 39122 ft 487 kts 129°
2026-04-27 02:03 39.13410 20.08862 39122 ft 487 kts 129°
2026-04-27 02:03 39.09119 20.15572 39138 ft 487 kts 129°
2026-04-27 02:04 39.04809 20.22301 39121 ft 487 kts 129°
2026-04-27 02:04 39.00514 20.28990 39107 ft 487 kts 129°
2026-04-27 02:05 38.96197 20.35701 39109 ft 488 kts 129°
2026-04-27 02:05 38.91902 20.42362 39110 ft 488 kts 129°
2026-04-27 02:06 38.87576 20.49040 39114 ft 488 kts 129°
2026-04-27 02:06 38.83216 20.55725 39113 ft 489 kts 129°
2026-04-27 02:07 38.78859 20.62417 39099 ft 489 kts 129°
2026-04-27 02:07 38.74503 20.69122 39134 ft 490 kts 129°
2026-04-27 02:08 38.70165 20.75810 39109 ft 491 kts 129°
2026-04-27 02:08 38.65819 20.82479 39121 ft 492 kts 130°
2026-04-27 02:09 38.61440 20.89175 39109 ft 491 kts 130°
2026-04-27 02:09 38.57063 20.95854 39109 ft 492 kts 130°
2026-04-27 02:10 38.52662 21.02552 39101 ft 492 kts 130°
2026-04-27 02:10 38.48270 21.09223 39096 ft 493 kts 130°
2026-04-27 02:11 38.43850 21.15921 39115 ft 494 kts 130°
2026-04-27 02:11 38.39437 21.22596 39119 ft 494 kts 130°
2026-04-27 02:12 38.35017 21.29266 39088 ft 494 kts 130°
2026-04-27 02:12 38.30583 21.35946 39098 ft 495 kts 130°
2026-04-27 02:13 38.26140 21.42625 39100 ft 495 kts 130°
2026-04-27 02:13 38.21717 21.49259 39105 ft 496 kts 130°
2026-04-27 02:14 38.17248 21.55947 39110 ft 495 kts 130°
2026-04-27 02:14 38.12787 21.62609 39100 ft 495 kts 130°
2026-04-27 02:15 38.08300 21.69314 39112 ft 496 kts 131°
2026-04-27 02:15 38.03862 21.75948 39109 ft 496 kts 131°
2026-04-27 02:16 37.99382 21.82609 39099 ft 496 kts 131°
2026-04-27 02:16 37.94887 21.89274 39126 ft 496 kts 131°
2026-04-27 02:17 37.90416 21.95886 39129 ft 497 kts 131°
2026-04-27 02:17 37.85878 22.02545 39153 ft 497 kts 132°
2026-04-27 02:18 37.81364 22.09154 39131 ft 498 kts 132°
2026-04-27 02:18 37.76865 22.15752 39137 ft 499 kts 132°
2026-04-27 02:19 37.72311 22.22424 39143 ft 499 kts 132°
2026-04-27 02:19 37.67749 22.29098 39131 ft 500 kts 132°
2026-04-27 02:20 37.63197 22.35745 39138 ft 500 kts 132°
2026-04-27 02:20 37.58653 22.42367 39118 ft 500 kts 132°
2026-04-27 02:21 37.54097 22.48995 39118 ft 501 kts 132°
2026-04-27 02:21 37.49533 22.55619 39107 ft 502 kts 132°
2026-04-27 02:22 37.44973 22.62226 39097 ft 502 kts 132°
2026-04-27 02:22 37.40395 22.68858 39080 ft 503 kts 133°
2026-04-27 02:23 37.35794 22.75525 39102 ft 502 kts 133°
2026-04-27 02:23 37.31202 22.82151 39105 ft 503 kts 133°
2026-04-27 02:24 37.26624 22.88735 39087 ft 503 kts 133°
2026-04-27 02:24 37.22037 22.95313 39095 ft 504 kts 133°
2026-04-27 02:25 37.17427 23.01910 39066 ft 504 kts 133°
2026-04-27 02:25 37.12794 23.08526 39069 ft 504 kts 133°
2026-04-27 02:26 37.08173 23.15114 39063 ft 504 kts 133°
2026-04-27 02:26 37.03543 23.21700 39066 ft 505 kts 134°
2026-04-27 02:27 36.98911 23.28274 39072 ft 505 kts 134°
2026-04-27 02:27 36.94281 23.34834 39065 ft 506 kts 133°
2026-04-27 02:28 36.89633 23.41404 39067 ft 506 kts 134°
2026-04-27 02:28 36.84952 23.47968 39065 ft 506 kts 134°
2026-04-27 02:29 36.80279 23.54519 39068 ft 506 kts 134°
2026-04-27 02:29 36.75614 23.61064 39069 ft 507 kts 134°
2026-04-27 02:30 36.70945 23.67616 39066 ft 507 kts 134°
2026-04-27 02:30 36.66294 23.74159 39068 ft 507 kts 134°
2026-04-27 02:31 36.61626 23.80700 39069 ft 508 kts 134°
2026-04-27 02:31 36.56921 23.87265 39066 ft 508 kts 134°
2026-04-27 02:32 36.52248 23.93771 39066 ft 508 kts 134°
2026-04-27 02:32 36.47522 24.00334 39068 ft 508 kts 135°
2026-04-27 02:33 36.42807 24.06871 39065 ft 508 kts 134°
2026-04-27 02:33 36.38114 24.13360 39066 ft 509 kts 134°
2026-04-27 02:34 36.33387 24.19891 39070 ft 509 kts 135°
2026-04-27 02:34 36.28656 24.26408 39066 ft 509 kts 135°
2026-04-27 02:35 36.23945 24.32886 39064 ft 509 kts 135°
2026-04-27 02:35 36.19205 24.39394 39067 ft 510 kts 135°
2026-04-27 02:36 36.14462 24.45891 39069 ft 510 kts 135°
2026-04-27 02:36 36.09676 24.52435 39068 ft 510 kts 135°
2026-04-27 02:37 36.04949 24.58883 39069 ft 510 kts 135°
2026-04-27 02:37 36.00180 24.65380 39074 ft 511 kts 135°
2026-04-27 02:38 35.95433 24.71861 39069 ft 510 kts 135°
2026-04-27 02:38 35.90685 24.78328 39072 ft 511 kts 135°
2026-04-27 02:39 35.85904 24.84782 39061 ft 510 kts 135°
2026-04-27 02:39 35.81133 24.91197 39068 ft 510 kts 136°
2026-04-27 02:40 35.76363 24.97620 39060 ft 509 kts 136°
2026-04-27 02:40 35.71598 25.04029 39065 ft 509 kts 135°
2026-04-27 02:41 35.66810 25.10462 39052 ft 509 kts 136°
2026-04-27 02:41 35.62036 25.16864 39045 ft 509 kts 135°
2026-04-27 02:42 35.57284 25.23224 39055 ft 508 kts 136°
2026-04-27 02:42 35.52494 25.29625 39048 ft 508 kts 136°
2026-04-27 02:43 35.47729 25.35979 39053 ft 508 kts 136°
2026-04-27 02:43 35.42959 25.42327 39050 ft 507 kts 136°
2026-04-27 02:44 35.38181 25.48675 39096 ft 507 kts 136°
2026-04-27 02:44 35.33416 25.54993 39100 ft 507 kts 136°
2026-04-27 02:45 35.28622 25.61337 39100 ft 507 kts 136°
2026-04-27 02:45 35.23854 25.67643 39092 ft 506 kts 136°
2026-04-27 02:46 35.19105 25.73940 39052 ft 506 kts 136°
2026-04-27 02:46 35.14308 25.80270 39030 ft 506 kts 136°
2026-04-27 02:47 35.09556 25.86520 39031 ft 505 kts 137°
2026-04-27 02:47 35.04760 25.92808 39019 ft 505 kts 137°
2026-04-27 02:48 34.99987 25.99054 39019 ft 505 kts 137°
2026-04-27 02:48 34.95223 26.05278 39025 ft 504 kts 137°
2026-04-27 02:49 34.90447 26.11507 39017 ft 505 kts 137°
2026-04-27 02:49 34.85635 26.17740 39018 ft 504 kts 137°
2026-04-27 02:50 34.80854 26.23920 39001 ft 504 kts 137°
2026-04-27 02:50 34.76047 26.30141 39021 ft 504 kts 137°
2026-04-27 02:51 34.71267 26.36327 39007 ft 505 kts 137°
2026-04-27 02:51 34.66463 26.42533 38998 ft 505 kts 137°
2026-04-27 02:52 34.61662 26.48727 39013 ft 505 kts 137°
2026-04-27 02:52 34.56828 26.54949 38995 ft 505 kts 137°
2026-04-27 02:53 34.52033 26.61112 39003 ft 505 kts 137°
2026-04-27 02:53 34.47237 26.67270 38991 ft 505 kts 137°
2026-04-27 02:54 34.42437 26.73451 38997 ft 505 kts 137°
2026-04-27 02:54 34.37620 26.79624 38997 ft 505 kts 137°
2026-04-27 02:55 34.32783 26.85798 38990 ft 505 kts 137°
2026-04-27 02:55 34.27963 26.91934 38995 ft 505 kts 137°
2026-04-27 02:56 34.23134 26.98070 38986 ft 505 kts 137°
2026-04-27 02:56 34.18309 27.04187 38974 ft 505 kts 137°
2026-04-27 02:57 34.13481 27.10294 38975 ft 505 kts 137°
2026-04-27 02:57 34.08634 27.16408 38978 ft 505 kts 137°
2026-04-27 02:58 34.03765 27.22542 38964 ft 505 kts 137°
2026-04-27 02:58 33.98735 27.28373 38978 ft 501 kts 143°
2026-04-27 02:59 33.93190 27.33414 38962 ft 497 kts 151°
2026-04-27 02:59 33.87255 27.37533 38963 ft 492 kts 158°
2026-04-27 03:00 33.81038 27.40883 38960 ft 490 kts 161°
2026-04-27 03:00 33.74812 27.44138 38941 ft 490 kts 161°
2026-04-27 03:01 33.68540 27.47431 38952 ft 491 kts 161°
2026-04-27 03:01 33.62302 27.50710 38939 ft 491 kts 161°
2026-04-27 03:02 33.56062 27.53990 38929 ft 491 kts 161°
2026-04-27 03:02 33.49820 27.57266 38923 ft 491 kts 161°
2026-04-27 03:03 33.40449 27.62175 38927 ft 491 kts 161°
2026-04-27 03:04 33.34192 27.65447 38914 ft 491 kts 161°
2026-04-27 03:04 33.27947 27.68739 38910 ft 491 kts 161°
2026-04-27 03:05 33.21696 27.72019 38900 ft 491 kts 161°
2026-04-27 03:05 33.15443 27.75280 38902 ft 491 kts 161°
2026-04-27 03:06 33.09202 27.78525 38907 ft 491 kts 161°
2026-04-27 03:06 33.02911 27.81790 38899 ft 491 kts 161°
2026-04-27 03:07 32.96682 27.85015 38891 ft 491 kts 161°
2026-04-27 03:07 32.90394 27.88267 38877 ft 491 kts 161°
2026-04-27 03:08 32.84133 27.91491 38872 ft 491 kts 161°
2026-04-27 03:08 32.77898 27.94694 38870 ft 491 kts 161°
2026-04-27 03:09 32.71618 27.97923 38864 ft 491 kts 161°
2026-04-27 03:09 32.65332 28.01152 38859 ft 491 kts 161°
2026-04-27 03:10 32.59087 28.04359 38853 ft 492 kts 162°
2026-04-27 03:10 32.52803 28.07576 38844 ft 492 kts 162°
2026-04-27 03:11 32.46528 28.10787 38849 ft 491 kts 162°
2026-04-27 03:11 32.40256 28.13991 38839 ft 492 kts 162°
2026-04-27 03:12 32.33969 28.17197 38840 ft 492 kts 162°
2026-04-27 03:12 32.27718 28.20380 38834 ft 492 kts 162°
2026-04-27 03:13 32.21406 28.23590 38826 ft 492 kts 162°
2026-04-27 03:13 32.15134 28.26773 38827 ft 492 kts 162°
2026-04-27 03:14 32.08877 28.29945 38828 ft 492 kts 162°
2026-04-27 03:14 32.02569 28.33140 38823 ft 492 kts 162°
2026-04-27 03:15 31.96317 28.36298 38818 ft 491 kts 162°
2026-04-27 03:15 31.90025 28.39474 38820 ft 492 kts 162°
2026-04-27 03:16 31.83708 28.42647 38800 ft 492 kts 162°
2026-04-27 03:16 31.77449 28.45786 38800 ft 492 kts 162°
2026-04-27 03:17 31.71165 28.48940 38800 ft 492 kts 162°
2026-04-27 03:17 31.64833 28.52116 38788 ft 493 kts 162°
2026-04-27 03:18 31.58562 28.55257 38791 ft 494 kts 162°
2026-04-27 03:18 31.52217 28.58429 38788 ft 494 kts 162°
2026-04-27 03:19 31.45889 28.61591 38788 ft 495 kts 162°
2026-04-27 03:19 31.39563 28.64746 38796 ft 494 kts 163°
2026-04-27 03:20 31.33269 28.67905 38785 ft 493 kts 163°
2026-04-27 03:20 31.26985 28.71055 38778 ft 493 kts 163°
2026-04-27 03:21 31.20670 28.74197 38780 ft 494 kts 163°
2026-04-27 03:21 31.14332 28.77341 38769 ft 493 kts 163°
2026-04-27 03:22 31.08009 28.80471 38770 ft 494 kts 163°
2026-04-27 03:22 31.01687 28.83592 38763 ft 494 kts 163°
2026-04-27 03:23 30.95381 28.86703 38774 ft 494 kts 163°
2026-04-27 03:23 30.89047 28.89823 38777 ft 495 kts 163°
2026-04-27 03:24 30.82712 28.92926 38777 ft 495 kts 164°
2026-04-27 03:24 30.76352 28.96042 38775 ft 495 kts 164°
2026-04-27 03:25 30.70012 28.99143 38782 ft 494 kts 164°
2026-04-27 03:25 30.63679 29.02237 38781 ft 495 kts 164°
2026-04-27 03:26 30.57393 29.05446 38785 ft 499 kts 160°
2026-04-27 03:26 30.51315 29.09499 38781 ft 507 kts 153°
2026-04-27 03:27 30.45686 29.14431 38787 ft 515 kts 145°
2026-04-27 03:27 30.40496 29.20266 38787 ft 520 kts 139°
2026-04-27 03:28 30.35513 29.26319 38782 ft 521 kts 138°
2026-04-27 03:28 30.30878 29.32754 38781 ft 527 kts 131°
2026-04-27 03:29 30.26809 29.39872 38781 ft 533 kts 125°
2026-04-27 03:29 30.23170 29.47331 38781 ft 535 kts 124°
2026-04-27 03:30 30.19550 29.54780 38780 ft 534 kts 124°
2026-04-27 03:30 30.15891 29.62245 38786 ft 534 kts 124°
2026-04-27 03:31 30.12225 29.69703 38791 ft 535 kts 124°
2026-04-27 03:31 30.08568 29.77144 38784 ft 535 kts 125°
2026-04-27 03:32 30.04908 29.84557 38791 ft 535 kts 125°
2026-04-27 03:32 30.01203 29.92027 38796 ft 536 kts 125°
2026-04-27 03:33 29.97508 29.99471 38799 ft 536 kts 125°
2026-04-27 03:33 29.93826 30.06872 38806 ft 535 kts 125°
2026-04-27 03:34 29.90126 30.14289 38808 ft 535 kts 125°
2026-04-27 03:34 29.86398 30.21697 38808 ft 536 kts 125°
2026-04-27 03:35 29.82657 30.29125 38813 ft 536 kts 125°
2026-04-27 03:35 29.78958 30.36485 38818 ft 535 kts 125°
2026-04-27 03:36 29.75223 30.43916 38816 ft 535 kts 125°
2026-04-27 03:36 29.71499 30.51309 38820 ft 536 kts 125°
2026-04-27 03:37 29.67774 30.58699 38811 ft 537 kts 125°
2026-04-27 03:37 29.64034 30.66105 38803 ft 537 kts 126°
2026-04-27 03:38 29.60306 30.73511 38797 ft 536 kts 126°
2026-04-27 03:38 29.56563 30.80915 38786 ft 537 kts 126°
2026-04-27 03:39 29.52822 30.88295 38783 ft 535 kts 126°
2026-04-27 03:39 29.49089 30.95629 38775 ft 537 kts 126°
2026-04-27 03:40 29.45323 31.03017 38776 ft 536 kts 126°
2026-04-27 03:40 29.41559 31.10386 38776 ft 536 kts 126°
2026-04-27 03:41 29.37809 31.17715 38780 ft 537 kts 126°
2026-04-27 03:41 29.34020 31.25105 38774 ft 536 kts 126°
2026-04-27 03:42 29.30246 31.32454 38793 ft 536 kts 126°
2026-04-27 03:42 29.26493 31.39749 38826 ft 536 kts 126°
2026-04-27 03:43 29.22691 31.47127 38851 ft 537 kts 126°
2026-04-27 03:43 29.18925 31.54422 38872 ft 536 kts 126°
2026-04-27 03:44 29.15121 31.61773 38882 ft 537 kts 126°
2026-04-27 03:44 29.11326 31.69113 38877 ft 537 kts 126°
2026-04-27 03:45 29.07544 31.76437 38880 ft 537 kts 127°
2026-04-27 03:45 29.03744 31.83769 38879 ft 536 kts 127°
2026-04-27 03:46 28.99955 31.91043 38855 ft 536 kts 127°
2026-04-27 03:46 28.96136 31.98359 38857 ft 537 kts 127°
2026-04-27 03:47 28.92318 32.05656 38855 ft 538 kts 127°
2026-04-27 03:47 28.88491 32.12960 38890 ft 538 kts 127°
2026-04-27 03:48 28.84623 32.20269 38904 ft 537 kts 127°
2026-04-27 03:48 28.80788 32.27536 38957 ft 539 kts 127°
2026-04-27 03:49 28.76934 32.34846 38965 ft 539 kts 127°
2026-04-27 03:49 28.73059 32.42192 38952 ft 540 kts 127°
2026-04-27 03:50 28.69205 32.49486 38940 ft 540 kts 127°
2026-04-27 03:50 28.65342 32.56784 38917 ft 541 kts 127°
2026-04-27 03:51 28.61461 32.64103 38903 ft 543 kts 128°
2026-04-27 03:51 28.57575 32.71453 38884 ft 541 kts 128°
2026-04-27 03:52 28.53689 32.78783 38861 ft 542 kts 128°
2026-04-27 03:52 28.49784 32.86128 38847 ft 543 kts 128°
2026-04-27 03:53 28.45883 32.93435 38840 ft 543 kts 128°
2026-04-27 03:53 28.41985 33.00722 38814 ft 543 kts 128°
2026-04-27 03:54 28.38060 33.08047 38821 ft 543 kts 128°
2026-04-27 03:54 28.34129 33.15373 38811 ft 546 kts 128°
2026-04-27 03:55 28.30191 33.22695 38818 ft 546 kts 128°
2026-04-27 03:55 28.26226 33.30056 38808 ft 547 kts 128°
2026-04-27 03:56 28.22273 33.37382 38811 ft 547 kts 128°
2026-04-27 03:56 28.18299 33.44742 38810 ft 547 kts 129°
2026-04-27 03:57 28.14324 33.52078 38812 ft 548 kts 129°
2026-04-27 03:57 28.10345 33.59417 38814 ft 549 kts 129°
2026-04-27 03:58 28.06370 33.66734 38821 ft 549 kts 129°
2026-04-27 03:58 28.02379 33.74112 38820 ft 549 kts 129°
2026-04-27 03:59 27.98404 33.81428 38822 ft 549 kts 129°
2026-04-27 03:59 27.94406 33.88756 38841 ft 549 kts 129°
2026-04-27 04:00 27.90393 33.96094 38847 ft 550 kts 129°
2026-04-27 04:00 27.86342 34.03443 38857 ft 550 kts 129°
2026-04-27 04:01 27.82309 34.10745 38845 ft 551 kts 129°
2026-04-27 04:01 27.78277 34.18061 38828 ft 551 kts 130°
2026-04-27 04:02 27.74235 34.25399 38822 ft 551 kts 130°
2026-04-27 04:02 27.70184 34.32737 38818 ft 551 kts 130°
2026-04-27 04:03 27.66146 34.40041 38811 ft 552 kts 130°
2026-04-27 04:03 27.62087 34.47375 38806 ft 553 kts 130°
2026-04-27 04:04 27.58007 34.54735 38803 ft 554 kts 130°
2026-04-27 04:04 27.53927 34.62079 38799 ft 554 kts 130°
2026-04-27 04:05 27.49855 34.69411 38798 ft 555 kts 130°
2026-04-27 04:05 27.45774 34.76785 38799 ft 552 kts 130°
2026-04-27 04:06 27.41701 34.84093 38797 ft 554 kts 130°
2026-04-27 04:06 27.37618 34.91398 38793 ft 554 kts 130°
2026-04-27 04:07 27.31437 35.02419 38792 ft 556 kts 130°
2026-04-27 04:07 27.27334 35.09728 38793 ft 557 kts 130°
2026-04-27 04:08 27.23202 35.17077 38790 ft 557 kts 130°
2026-04-27 04:08 27.19087 35.24380 38785 ft 556 kts 130°
2026-04-27 04:09 27.14938 35.31730 38788 ft 557 kts 130°
2026-04-27 04:09 27.10790 35.39071 38785 ft 558 kts 131°
2026-04-27 04:10 27.06623 35.46425 38787 ft 559 kts 130°
2026-04-27 04:10 27.02472 35.53749 38777 ft 558 kts 130°
2026-04-27 04:11 26.98334 35.61037 38783 ft 558 kts 131°
2026-04-27 04:11 26.94139 35.68412 38777 ft 559 kts 131°
2026-04-27 04:12 26.89995 35.75729 38780 ft 558 kts 131°
2026-04-27 04:12 26.85814 35.83030 38782 ft 557 kts 131°
2026-04-27 04:13 26.81605 35.90348 38780 ft 559 kts 131°
2026-04-27 04:13 26.77428 35.97622 38784 ft 558 kts 131°
2026-04-27 04:14 26.73265 36.04885 38784 ft 556 kts 131°
2026-04-27 04:14 26.69095 36.12139 38787 ft 557 kts 131°
2026-04-27 04:15 26.64887 36.19444 38793 ft 558 kts 131°
2026-04-27 04:15 26.60711 36.26690 38794 ft 557 kts 131°
2026-04-27 04:16 26.56515 36.33959 38794 ft 556 kts 131°
2026-04-27 04:16 26.52321 36.41208 38805 ft 556 kts 131°
2026-04-27 04:17 26.48131 36.48434 38815 ft 557 kts 131°
2026-04-27 04:17 26.43937 36.55668 38820 ft 556 kts 131°
2026-04-27 04:18 26.39746 36.62883 38822 ft 555 kts 131°
2026-04-27 04:18 26.35580 36.70065 38826 ft 553 kts 132°
2026-04-27 04:19 26.31381 36.77293 38830 ft 556 kts 131°
2026-04-27 04:19 26.27189 36.84490 38837 ft 555 kts 132°
2026-04-27 04:20 26.22990 36.91673 38835 ft 555 kts 132°
2026-04-27 04:20 26.18784 36.98856 38835 ft 555 kts 132°
2026-04-27 04:21 26.14580 37.06025 38839 ft 553 kts 132°
2026-04-27 04:21 26.10377 37.13179 38852 ft 554 kts 132°
2026-04-27 04:22 26.06158 37.20344 38855 ft 553 kts 132°
2026-04-27 04:22 26.01946 37.27491 38856 ft 552 kts 132°
2026-04-27 04:23 25.97726 37.34630 38859 ft 555 kts 131°
2026-04-27 04:23 25.93479 37.41818 38872 ft 554 kts 132°
2026-04-27 04:24 25.89261 37.48940 38887 ft 555 kts 132°
2026-04-27 04:24 25.85022 37.56043 38898 ft 552 kts 132°
2026-04-27 04:25 25.80791 37.63127 38898 ft 553 kts 132°
2026-04-27 04:25 25.76543 37.70280 38898 ft 554 kts 132°
2026-04-27 04:26 25.72343 37.77365 38892 ft 553 kts 132°
2026-04-27 04:26 25.68130 37.84439 38893 ft 551 kts 132°
2026-04-27 04:27 25.63890 37.91531 38899 ft 552 kts 132°
2026-04-27 04:27 25.59668 37.98583 38899 ft 552 kts 132°
2026-04-27 04:28 25.55411 38.05689 38904 ft 552 kts 132°
2026-04-27 04:28 25.51193 38.12715 38904 ft 550 kts 132°
2026-04-27 04:29 25.46938 38.19790 38906 ft 551 kts 132°
2026-04-27 04:29 25.42699 38.26825 38907 ft 551 kts 132°
2026-04-27 04:30 25.38439 38.33892 38899 ft 552 kts 132°
2026-04-27 04:30 25.34213 38.40895 38901 ft 549 kts 132°
2026-04-27 04:31 25.29942 38.47945 38895 ft 551 kts 132°
2026-04-27 04:31 25.25693 38.54967 38898 ft 551 kts 132°
2026-04-27 04:32 25.21427 38.61987 38911 ft 553 kts 131°
2026-04-27 04:32 25.17177 38.69002 38937 ft 551 kts 132°
2026-04-27 04:33 25.12944 38.75998 38968 ft 551 kts 133°
2026-04-27 04:33 25.08693 38.82992 38983 ft 549 kts 133°
2026-04-27 04:34 25.04445 38.89959 38974 ft 547 kts 133°
2026-04-27 04:34 25.00192 38.96913 39063 ft 549 kts 133°
2026-04-27 04:35 24.98051 39.00411 39333 ft 547 kts 133°
2026-04-27 04:35 24.95939 39.03857 39645 ft 546 kts 132°
2026-04-27 04:35 24.93814 39.07321 39858 ft 546 kts 132°
2026-04-27 04:35 24.91683 39.10796 40043 ft 545 kts 132°
2026-04-27 04:36 24.89568 39.14242 40293 ft 544 kts 132°
2026-04-27 04:36 24.87454 39.17669 40544 ft 542 kts 132°
2026-04-27 04:36 24.85342 39.21082 40810 ft 540 kts 132°
2026-04-27 04:36 24.83216 39.24519 40931 ft 539 kts 132°
2026-04-27 04:37 24.79010 39.31333 40960 ft 537 kts 132°
2026-04-27 04:37 24.74822 39.38118 40993 ft 539 kts 133°
2026-04-27 04:38 24.70621 39.44923 41030 ft 536 kts 132°
2026-04-27 04:38 24.66417 39.51711 41054 ft 536 kts 132°
2026-04-27 04:39 24.62239 39.58450 41037 ft 537 kts 133°
2026-04-27 04:39 24.58308 39.65435 41015 ft 544 kts 124°
2026-04-27 04:40 24.55371 39.73170 40999 ft 556 kts 114°
2026-04-27 04:40 24.53641 39.81454 40987 ft 565 kts 102°
2026-04-27 04:41 24.52813 39.90053 41005 ft 566 kts 99°
2026-04-27 04:41 24.52063 39.98650 41003 ft 566 kts 99°
2026-04-27 04:42 24.51261 40.07218 41011 ft 567 kts 99°
2026-04-27 04:42 24.50429 40.15811 41008 ft 565 kts 100°
2026-04-27 04:43 24.49586 40.24336 41004 ft 565 kts 99°
2026-04-27 04:43 24.48741 40.32885 41015 ft 567 kts 100°
2026-04-27 04:44 24.47883 40.41487 41010 ft 566 kts 100°
2026-04-27 04:44 24.47025 40.50066 41014 ft 565 kts 100°
2026-04-27 04:45 24.46160 40.58625 41016 ft 565 kts 100°
2026-04-27 04:45 24.45295 40.67170 41010 ft 564 kts 101°
2026-04-27 04:46 24.44429 40.75662 41016 ft 566 kts 100°
2026-04-27 04:46 24.43556 40.84233 41023 ft 565 kts 100°
2026-04-27 04:47 24.42663 40.92786 41026 ft 565 kts 101°
2026-04-27 04:47 24.41765 41.01339 41036 ft 565 kts 101°
2026-04-27 04:48 24.40883 41.09823 41035 ft 565 kts 100°
2026-04-27 04:48 24.40003 41.18406 41042 ft 565 kts 100°
2026-04-27 04:49 24.39119 41.26913 41044 ft 564 kts 101°
2026-04-27 04:49 24.38214 41.35448 41048 ft 564 kts 101°
2026-04-27 04:50 24.37302 41.43924 41058 ft 565 kts 100°
2026-04-27 04:50 24.36389 41.52461 41065 ft 565 kts 101°
2026-04-27 04:51 24.35457 41.61005 41067 ft 565 kts 100°
2026-04-27 04:51 24.34529 41.69519 41060 ft 566 kts 101°
2026-04-27 04:52 24.33591 41.78050 41056 ft 563 kts 102°
2026-04-27 04:52 24.32140 41.86435 41058 ft 558 kts 110°
2026-04-27 04:53 24.30049 41.94547 41051 ft 555 kts 112°
2026-04-27 04:53 24.27858 42.02681 41050 ft 557 kts 112°
2026-04-27 04:54 24.25695 42.10804 41053 ft 556 kts 111°
2026-04-27 04:54 24.23547 42.18908 41050 ft 557 kts 111°
2026-04-27 04:55 24.21395 42.27036 41060 ft 556 kts 111°
2026-04-27 04:55 24.19255 42.35105 41062 ft 556 kts 111°
2026-04-27 04:56 24.17087 42.43222 41065 ft 556 kts 112°
2026-04-27 04:56 24.14926 42.51313 41066 ft 556 kts 111°
2026-04-27 04:57 24.12766 42.59385 41065 ft 555 kts 111°
2026-04-27 04:57 24.10590 42.67475 41062 ft 556 kts 111°
2026-04-27 04:58 24.08411 42.75605 41068 ft 556 kts 112°
2026-04-27 04:58 24.06240 42.83636 41070 ft 555 kts 112°
2026-04-27 04:59 24.04046 42.91754 41077 ft 556 kts 112°
2026-04-27 04:59 24.01894 42.99813 41080 ft 554 kts 111°
2026-04-27 05:00 23.99710 43.07909 41080 ft 554 kts 112°
2026-04-27 05:00 23.97525 43.15934 41079 ft 555 kts 112°
2026-04-27 05:01 23.95309 43.24059 41076 ft 555 kts 112°
2026-04-27 05:01 23.93110 43.32103 41074 ft 555 kts 112°
2026-04-27 05:02 23.90905 43.40163 41084 ft 554 kts 112°
2026-04-27 05:03 23.87562 43.52201 41085 ft 554 kts 112°
2026-04-27 05:03 23.85336 43.60217 41083 ft 553 kts 112°
2026-04-27 05:04 23.83119 43.68224 41074 ft 553 kts 112°
2026-04-27 05:04 23.80901 43.76266 41071 ft 553 kts 112°
2026-04-27 05:05 23.78732 43.84264 41066 ft 556 kts 109°
2026-04-27 05:05 23.77191 43.92563 41075 ft 560 kts 102°
2026-04-27 05:06 23.76455 44.01017 41062 ft 563 kts 98°
2026-04-27 05:06 23.75876 44.09520 41060 ft 563 kts 97°
2026-04-27 05:07 23.75267 44.17980 41059 ft 563 kts 98°
2026-04-27 05:07 23.74626 44.26491 41068 ft 563 kts 98°
2026-04-27 05:08 23.73982 44.34970 41063 ft 561 kts 98°
2026-04-27 05:08 23.73331 44.43422 41073 ft 562 kts 98°
2026-04-27 05:09 23.72671 44.51927 41080 ft 563 kts 98°
2026-04-27 05:09 23.72012 44.60381 41080 ft 563 kts 98°
2026-04-27 05:10 23.71349 44.68851 41074 ft 562 kts 98°
2026-04-27 05:10 23.70675 44.77317 41076 ft 562 kts 99°
2026-04-27 05:11 23.69991 44.85818 41069 ft 562 kts 99°
2026-04-27 05:11 23.69327 44.94242 41066 ft 561 kts 98°
2026-04-27 05:12 23.68650 45.02728 41058 ft 562 kts 99°
2026-04-27 05:12 23.67957 45.11181 41050 ft 562 kts 99°
2026-04-27 05:13 23.67257 45.19645 41055 ft 561 kts 98°
2026-04-27 05:13 23.66569 45.28120 41051 ft 562 kts 99°
2026-04-27 05:14 23.65875 45.36565 41045 ft 563 kts 98°
2026-04-27 05:14 23.65172 45.45015 41044 ft 562 kts 99°
2026-04-27 05:15 23.64457 45.53469 41035 ft 561 kts 99°
2026-04-27 05:15 23.63724 45.61948 41023 ft 562 kts 98°
2026-04-27 05:16 23.63012 45.70408 41016 ft 562 kts 99°
2026-04-27 05:16 23.62309 45.78870 41005 ft 562 kts 99°
2026-04-27 05:17 23.61593 45.87312 41002 ft 561 kts 99°
2026-04-27 05:17 23.60861 45.95720 41000 ft 562 kts 99°
2026-04-27 05:18 23.60119 46.04218 41002 ft 562 kts 99°
2026-04-27 05:18 23.59381 46.12637 41017 ft 561 kts 99°
2026-04-27 05:19 23.58626 46.21107 41038 ft 562 kts 99°
2026-04-27 05:19 23.57874 46.29548 41054 ft 561 kts 99°
2026-04-27 05:20 23.57117 46.37963 41068 ft 561 kts 99°
2026-04-27 05:20 23.56345 46.46399 41082 ft 561 kts 99°
2026-04-27 05:21 23.55586 46.54786 41091 ft 560 kts 99°
2026-04-27 05:21 23.54834 46.63226 41075 ft 561 kts 99°
2026-04-27 05:22 23.54076 46.71693 41041 ft 560 kts 99°
2026-04-27 05:22 23.53302 46.80108 41021 ft 561 kts 99°
2026-04-27 05:23 23.52520 46.88531 41007 ft 560 kts 99°
2026-04-27 05:23 23.51733 46.96911 40993 ft 561 kts 99°
2026-04-27 05:24 23.50939 47.05387 40987 ft 560 kts 99°
2026-04-27 05:24 23.50137 47.13815 40985 ft 562 kts 99°
2026-04-27 05:25 23.49336 47.22228 40978 ft 560 kts 99°
2026-04-27 05:25 23.48526 47.30669 40980 ft 560 kts 99°
2026-04-27 05:26 23.47708 47.39065 40978 ft 561 kts 99°
2026-04-27 05:26 23.46888 47.47478 40978 ft 560 kts 99°
2026-04-27 05:27 23.46073 47.55869 40976 ft 560 kts 99°
2026-04-27 05:27 23.45269 47.64300 40971 ft 560 kts 99°
2026-04-27 05:28 23.44460 47.72677 40959 ft 559 kts 100°
2026-04-27 05:28 23.43628 47.81105 40958 ft 559 kts 100°
2026-04-27 05:29 23.42789 47.89485 40951 ft 560 kts 100°
2026-04-27 05:29 23.41946 47.97891 40950 ft 560 kts 100°
2026-04-27 05:30 23.41094 48.06316 40941 ft 560 kts 100°
2026-04-27 05:30 23.40240 48.14673 40942 ft 559 kts 100°
2026-04-27 05:31 23.39371 48.23029 40938 ft 558 kts 102°
2026-04-27 05:31 23.37811 48.31251 40937 ft 551 kts 111°
2026-04-27 05:32 23.35115 48.38988 40930 ft 543 kts 122°
2026-04-27 05:32 23.31459 48.46001 40939 ft 533 kts 129°
2026-04-27 05:33 23.27414 48.52766 40926 ft 533 kts 130°
2026-04-27 05:33 23.23386 48.59526 40920 ft 534 kts 129°
2026-04-27 05:34 23.19373 48.66329 40916 ft 534 kts 130°
2026-04-27 05:34 23.15419 48.73079 40915 ft 534 kts 130°
2026-04-27 05:35 23.11423 48.79887 40909 ft 533 kts 130°
2026-04-27 05:35 23.07433 48.86652 40906 ft 534 kts 130°
2026-04-27 05:36 23.03433 48.93425 40891 ft 533 kts 130°
2026-04-27 05:36 22.99422 49.00201 40881 ft 533 kts 130°
2026-04-27 05:37 22.95443 49.06916 40884 ft 533 kts 130°
2026-04-27 05:37 22.91450 49.13645 40870 ft 534 kts 130°
2026-04-27 05:38 22.87403 49.20436 40871 ft 532 kts 130°
2026-04-27 05:38 22.83384 49.27149 40874 ft 531 kts 130°
2026-04-27 05:39 22.79394 49.33827 40873 ft 532 kts 130°
2026-04-27 05:39 22.75376 49.40561 40878 ft 533 kts 129°
2026-04-27 05:40 22.71339 49.47322 40875 ft 532 kts 129°
2026-04-27 05:40 22.67338 49.54007 40867 ft 532 kts 129°
2026-04-27 05:41 22.63328 49.60696 40866 ft 532 kts 130°
2026-04-27 05:41 22.59304 49.67425 40863 ft 533 kts 129°
2026-04-27 05:42 22.55699 49.74456 40865 ft 539 kts 122°
2026-04-27 05:42 22.52833 49.81980 40869 ft 545 kts 114°
2026-04-27 05:43 22.50793 49.89872 40869 ft 550 kts 107°
2026-04-27 05:43 22.49165 49.97892 40869 ft 551 kts 106°
2026-04-27 05:44 22.47517 50.06004 40865 ft 551 kts 107°
2026-04-27 05:44 22.45854 50.14043 40868 ft 551 kts 107°
2026-04-27 05:45 22.44175 50.22093 40864 ft 550 kts 107°
2026-04-27 05:45 22.42487 50.30132 40861 ft 550 kts 107°
2026-04-27 05:46 22.40792 50.38195 40868 ft 550 kts 107°
2026-04-27 05:46 22.39106 50.46200 40865 ft 549 kts 107°
2026-04-27 05:47 22.37405 50.54234 40862 ft 550 kts 107°
2026-04-27 05:47 22.35710 50.62232 40858 ft 550 kts 107°
2026-04-27 05:48 22.34003 50.70292 40859 ft 550 kts 107°
2026-04-27 05:48 22.32302 50.78316 40853 ft 550 kts 107°
2026-04-27 05:49 22.30602 50.86301 40852 ft 549 kts 108°
2026-04-27 05:49 22.28881 50.94342 40842 ft 549 kts 108°
2026-04-27 05:50 22.27160 51.02346 40836 ft 549 kts 107°
2026-04-27 05:50 22.25443 51.10330 40840 ft 549 kts 107°
2026-04-27 05:51 22.23714 51.18344 40844 ft 549 kts 108°
2026-04-27 05:51 22.21981 51.26347 40841 ft 548 kts 107°
2026-04-27 05:52 22.20241 51.34377 40836 ft 549 kts 108°
2026-04-27 05:52 22.18512 51.42337 40834 ft 549 kts 108°
2026-04-27 05:53 22.16765 51.50350 40837 ft 548 kts 108°
2026-04-27 05:53 22.15030 51.58290 40842 ft 548 kts 107°
2026-04-27 05:54 22.13275 51.66295 40829 ft 548 kts 108°
2026-04-27 05:54 22.11536 51.74263 40833 ft 548 kts 108°
2026-04-27 05:55 22.09780 51.82269 40836 ft 547 kts 108°
2026-04-27 05:55 22.08023 51.90232 40836 ft 548 kts 108°
2026-04-27 05:56 22.06262 51.98193 40838 ft 548 kts 108°
2026-04-27 05:56 22.04494 52.06155 40841 ft 548 kts 108°
2026-04-27 05:57 22.02724 52.14120 40839 ft 547 kts 108°
2026-04-27 05:57 22.00948 52.22082 40841 ft 547 kts 108°
2026-04-27 05:58 21.99169 52.30027 40847 ft 547 kts 108°
2026-04-27 05:58 21.97392 52.37964 40844 ft 547 kts 108°
2026-04-27 05:59 21.95604 52.45895 40845 ft 547 kts 108°
2026-04-27 05:59 21.93805 52.53841 40840 ft 546 kts 108°
2026-04-27 06:00 21.91115 52.65766 40838 ft 548 kts 107°
2026-04-27 06:00 21.89896 52.73847 40840 ft 552 kts 99°
2026-04-27 06:01 21.89354 52.82061 40838 ft 553 kts 96°
2026-04-27 06:01 21.88920 52.90288 40842 ft 552 kts 96°
2026-04-27 06:02 21.88470 52.98552 40833 ft 553 kts 96°
2026-04-27 06:02 21.88002 53.06784 40835 ft 553 kts 96°
2026-04-27 06:03 21.87526 53.15047 40836 ft 553 kts 96°
2026-04-27 06:03 21.87048 53.23246 40837 ft 553 kts 96°
2026-04-27 06:04 21.86566 53.31499 40839 ft 553 kts 96°
2026-04-27 06:04 21.86081 53.39695 40835 ft 553 kts 96°
2026-04-27 06:05 21.85589 53.47961 40838 ft 553 kts 96°
2026-04-27 06:05 21.85093 53.56170 40837 ft 553 kts 96°
2026-04-27 06:06 21.84596 53.64407 40842 ft 553 kts 96°
2026-04-27 06:06 21.84093 53.72672 40839 ft 552 kts 97°
2026-04-27 06:07 21.83591 53.80866 40842 ft 552 kts 97°
2026-04-27 06:07 21.83080 53.89061 40839 ft 552 kts 97°
2026-04-27 06:08 21.82562 53.97277 40834 ft 553 kts 97°
2026-04-27 06:08 21.82040 54.05555 40834 ft 553 kts 97°
2026-04-27 06:09 21.81516 54.13760 40838 ft 552 kts 97°
2026-04-27 06:09 21.80985 54.21981 40845 ft 553 kts 97°
2026-04-27 06:10 21.80451 54.30183 40847 ft 552 kts 97°
2026-04-27 06:10 21.79904 54.38436 40845 ft 552 kts 97°
2026-04-27 06:11 21.79585 54.46635 40831 ft 555 kts 88°
2026-04-27 06:11 21.81019 54.54773 40830 ft 557 kts 70°
2026-04-27 06:12 21.84456 54.62149 40834 ft 553 kts 52°
2026-04-27 06:12 21.89362 54.68480 40829 ft 549 kts 44°
2026-04-27 06:13 21.94482 54.74595 40828 ft 552 kts 45°
2026-04-27 06:13 21.99552 54.80768 40830 ft 551 kts 45°
2026-04-27 06:14 22.04613 54.87007 40837 ft 553 kts 46°
2026-04-27 06:14 22.09649 54.93244 40840 ft 553 kts 45°
2026-04-27 06:15 22.14682 54.99454 40847 ft 553 kts 45°
2026-04-27 06:15 22.19738 55.05700 40844 ft 553 kts 45°
2026-04-27 06:16 22.24761 55.11945 40842 ft 553 kts 45°
2026-04-27 06:16 22.29819 55.18249 40834 ft 554 kts 45°
2026-04-27 06:17 22.34820 55.24501 40832 ft 554 kts 45°
2026-04-27 06:17 22.39817 55.30867 40825 ft 556 kts 49°
2026-04-27 06:18 22.44151 55.37769 40832 ft 560 kts 58°
2026-04-27 06:18 22.47526 55.45323 40838 ft 561 kts 68°
2026-04-27 06:19 22.49990 55.53294 40837 ft 562 kts 73°
2026-04-27 06:19 22.52258 55.61401 40845 ft 562 kts 73°
2026-04-27 06:20 22.54540 55.69441 40841 ft 562 kts 73°
2026-04-27 06:20 22.56848 55.77494 40846 ft 563 kts 73°
2026-04-27 06:21 22.59172 55.85577 40851 ft 563 kts 73°
2026-04-27 06:21 22.61497 55.93659 40857 ft 563 kts 72°
2026-04-27 06:22 22.63814 56.01712 40854 ft 563 kts 73°
2026-04-27 06:22 22.66125 56.09780 40858 ft 563 kts 72°
2026-04-27 06:23 22.68426 56.17827 40861 ft 563 kts 72°
2026-04-27 06:23 22.70738 56.25930 40868 ft 563 kts 72°
2026-04-27 06:24 22.73045 56.34025 40879 ft 563 kts 73°
2026-04-27 06:24 22.75342 56.42110 40889 ft 564 kts 73°
2026-04-27 06:25 22.77631 56.50193 40900 ft 564 kts 73°
2026-04-27 06:25 22.79917 56.58275 40912 ft 564 kts 73°
2026-04-27 06:26 22.82214 56.66423 40908 ft 564 kts 73°
2026-04-27 06:26 22.84491 56.74527 40928 ft 564 kts 73°
2026-04-27 06:27 22.86764 56.82641 40941 ft 564 kts 73°
2026-04-27 06:27 22.89026 56.90726 40968 ft 564 kts 73°
2026-04-27 06:28 22.91302 56.98853 40986 ft 564 kts 73°
2026-04-27 06:28 22.93557 57.06952 40999 ft 564 kts 73°
2026-04-27 06:29 22.95812 57.15072 41003 ft 564 kts 73°
2026-04-27 06:29 22.98060 57.23222 41019 ft 564 kts 74°
2026-04-27 06:30 22.99781 57.31479 41034 ft 564 kts 82°
2026-04-27 06:30 23.00551 57.39931 41018 ft 561 kts 90°
2026-04-27 06:31 23.00761 57.48313 41009 ft 561 kts 91°
2026-04-27 06:31 23.00947 57.56775 40998 ft 561 kts 91°
2026-04-27 06:32 23.01156 57.65184 41001 ft 562 kts 91°
2026-04-27 06:32 23.01383 57.73650 41018 ft 561 kts 91°
2026-04-27 06:33 23.01605 57.82056 41017 ft 561 kts 91°
2026-04-27 06:33 23.01825 57.90523 41018 ft 560 kts 91°
2026-04-27 06:34 23.02040 57.98963 41017 ft 560 kts 91°
2026-04-27 06:34 23.02246 58.07360 41021 ft 561 kts 90°
2026-04-27 06:35 23.02455 58.15835 41018 ft 561 kts 91°
2026-04-27 06:35 23.02653 58.24225 41012 ft 560 kts 91°
2026-04-27 06:36 23.02848 58.32668 41010 ft 561 kts 91°
2026-04-27 06:36 23.03039 58.41098 41011 ft 560 kts 91°
2026-04-27 06:37 23.03229 58.49514 41017 ft 561 kts 91°
2026-04-27 06:37 23.03409 58.57962 40999 ft 561 kts 91°
2026-04-27 06:38 23.03586 58.66405 40963 ft 561 kts 91°
2026-04-27 06:38 23.03761 58.74885 40944 ft 561 kts 91°
2026-04-27 06:39 23.03929 58.83298 40953 ft 562 kts 91°
2026-04-27 06:39 23.04098 58.91752 40998 ft 561 kts 91°
2026-04-27 06:40 23.04253 59.00153 41038 ft 561 kts 91°
2026-04-27 06:40 23.04411 59.08610 41016 ft 562 kts 91°
2026-04-27 06:41 23.04565 59.17057 40943 ft 561 kts 91°
2026-04-27 06:41 23.04712 59.25520 40863 ft 562 kts 91°
2026-04-27 06:42 23.04855 59.33928 40828 ft 561 kts 91°
2026-04-27 06:42 23.04993 59.42367 40830 ft 562 kts 91°
2026-04-27 06:43 23.05127 59.50859 40825 ft 562 kts 91°
2026-04-27 06:43 23.05255 59.59269 40826 ft 561 kts 91°
2026-04-27 06:44 23.05381 59.67732 40823 ft 561 kts 92°
2026-04-27 06:44 23.05501 59.76160 40826 ft 562 kts 92°
2026-04-27 06:45 23.05618 59.84645 40829 ft 563 kts 92°
2026-04-27 06:45 23.05732 59.93161 40821 ft 568 kts 92°
2026-04-27 06:46 23.05841 60.01754 40826 ft 573 kts 91°
2026-04-27 06:46 23.05947 60.10389 40823 ft 577 kts 91°
2026-04-27 06:47 23.06047 60.19060 40825 ft 580 kts 91°
2026-04-27 06:47 23.06145 60.27816 40822 ft 582 kts 91°
2026-04-27 06:48 23.06239 60.36612 40826 ft 582 kts 92°
2026-04-27 06:48 23.06324 60.45393 40825 ft 584 kts 92°
2026-04-27 06:49 23.06407 60.54111 40826 ft 583 kts 92°
2026-04-27 06:49 23.06483 60.62896 40828 ft 583 kts 92°
2026-04-27 06:50 23.06553 60.71704 40828 ft 583 kts 92°
2026-04-27 06:50 23.06620 60.80448 40825 ft 583 kts 92°
2026-04-27 06:51 23.06683 60.89202 40824 ft 582 kts 92°
2026-04-27 06:51 23.06740 60.98009 40827 ft 583 kts 92°
2026-04-27 06:52 23.06793 61.06722 40822 ft 582 kts 92°
2026-04-27 06:52 23.06838 61.15531 40825 ft 582 kts 92°
2026-04-27 06:53 23.06877 61.24269 40823 ft 582 kts 92°
2026-04-27 06:53 23.06912 61.33069 40828 ft 583 kts 92°
2026-04-27 06:54 23.06936 61.41832 40825 ft 583 kts 92°
2026-04-27 06:54 23.06962 61.50597 40828 ft 583 kts 92°
2026-04-27 06:55 23.07002 61.59375 40825 ft 583 kts 92°
2026-04-27 06:55 23.07026 61.68156 40826 ft 583 kts 92°
2026-04-27 06:56 23.07040 61.76895 40822 ft 582 kts 92°
2026-04-27 06:56 23.07047 61.85639 40828 ft 583 kts 92°
2026-04-27 06:57 23.07049 61.94439 40825 ft 582 kts 92°
2026-04-27 06:57 23.07045 62.03195 40824 ft 582 kts 93°
2026-04-27 06:58 23.07032 62.16305 40825 ft 583 kts 92°
2026-04-27 06:59 23.07017 62.25103 40825 ft 583 kts 93°
2026-04-27 06:59 23.06996 62.33859 40825 ft 582 kts 92°
2026-04-27 07:00 23.06969 62.42677 40831 ft 583 kts 92°
2026-04-27 07:00 23.06940 62.51426 40823 ft 582 kts 92°
2026-04-27 07:01 23.06905 62.60184 40828 ft 583 kts 92°
2026-04-27 07:01 23.06869 62.68932 40821 ft 582 kts 93°
2026-04-27 07:02 23.06825 62.77707 40825 ft 582 kts 93°
2026-04-27 07:02 23.06776 62.86442 40827 ft 582 kts 93°
2026-04-27 07:03 23.06720 62.95238 40827 ft 582 kts 93°
2026-04-27 07:03 23.06659 63.04020 40826 ft 582 kts 93°
2026-04-27 07:04 23.06593 63.12772 40825 ft 582 kts 93°
2026-04-27 07:04 23.06524 63.21575 40824 ft 582 kts 93°
2026-04-27 07:05 23.06451 63.30284 40826 ft 582 kts 93°
2026-04-27 07:05 23.06371 63.39072 40824 ft 582 kts 93°
2026-04-27 07:06 23.06288 63.47811 40826 ft 582 kts 93°
2026-04-27 07:06 23.06196 63.56608 40821 ft 582 kts 93°
2026-04-27 07:07 23.06101 63.65347 40825 ft 582 kts 94°
2026-04-27 07:07 23.05996 63.74118 40821 ft 582 kts 93°
2026-04-27 07:08 23.05890 63.82847 40824 ft 582 kts 94°
2026-04-27 07:08 23.05405 63.91594 40823 ft 580 kts 99°
2026-04-27 07:09 23.04527 64.00284 40825 ft 579 kts 100°
2026-04-27 07:09 23.03613 64.08958 40827 ft 580 kts 99°
2026-04-27 07:10 23.02710 64.17640 40825 ft 579 kts 99°
2026-04-27 07:10 23.01816 64.26290 40824 ft 579 kts 100°
2026-04-27 07:11 23.00916 64.34946 40827 ft 579 kts 99°
2026-04-27 07:11 23.00010 64.43599 40822 ft 579 kts 99°
2026-04-27 07:12 22.99103 64.52246 40826 ft 579 kts 100°
2026-04-27 07:12 22.98192 64.60879 40825 ft 579 kts 100°
2026-04-27 07:13 22.97268 64.69532 40825 ft 578 kts 100°
2026-04-27 07:13 22.96346 64.78156 40818 ft 579 kts 100°
2026-04-27 07:14 22.95798 64.86845 40824 ft 581 kts 93°
2026-04-27 07:14 22.95840 64.95606 40826 ft 582 kts 91°
2026-04-27 07:15 22.95929 65.04356 40820 ft 582 kts 92°
2026-04-27 07:15 22.95991 65.13130 40822 ft 582 kts 92°
2026-04-27 07:16 22.96035 65.21899 40822 ft 583 kts 92°
2026-04-27 07:16 22.96068 65.30611 40825 ft 583 kts 92°
2026-04-27 07:17 22.96099 65.39407 40816 ft 582 kts 92°
2026-04-27 07:17 22.96123 65.48150 40823 ft 582 kts 92°
2026-04-27 07:18 22.96144 65.56917 40825 ft 583 kts 92°
2026-04-27 07:18 22.96160 65.65671 40819 ft 583 kts 92°
2026-04-27 07:19 22.96175 65.74445 40826 ft 582 kts 92°
2026-04-27 07:19 22.96180 65.83152 40822 ft 582 kts 92°
2026-04-27 07:20 22.96178 65.91927 40827 ft 582 kts 93°
2026-04-27 07:20 22.96175 66.00716 40817 ft 583 kts 93°
2026-04-27 07:21 22.96167 66.09470 40824 ft 582 kts 92°
2026-04-27 07:21 22.96154 66.18218 40824 ft 582 kts 92°
2026-04-27 07:22 22.96133 66.26942 40819 ft 582 kts 92°
2026-04-27 07:22 22.96109 66.35709 40821 ft 582 kts 92°
2026-04-27 07:23 22.96083 66.44435 40823 ft 582 kts 92°
2026-04-27 07:23 22.96048 66.53210 40815 ft 581 kts 93°
2026-04-27 07:24 22.96007 66.61971 40828 ft 583 kts 93°
2026-04-27 07:24 22.95964 66.70712 40821 ft 582 kts 93°
2026-04-27 07:25 22.95913 66.79414 40828 ft 582 kts 93°
2026-04-27 07:25 22.95853 66.88158 40823 ft 582 kts 93°
2026-04-27 07:26 22.95789 66.96893 40823 ft 581 kts 92°
2026-04-27 07:26 22.95814 67.05674 40829 ft 582 kts 92°
2026-04-27 07:27 22.95853 67.14439 40826 ft 583 kts 92°
2026-04-27 07:27 22.95875 67.23177 40817 ft 582 kts 92°
2026-04-27 07:28 22.95882 67.31924 40822 ft 582 kts 92°
2026-04-27 07:28 22.95885 67.40713 40821 ft 582 kts 92°
2026-04-27 07:29 22.95882 67.49439 40824 ft 582 kts 92°
2026-04-27 07:29 22.95868 67.58224 40823 ft 582 kts 92°
2026-04-27 07:30 22.95854 67.66961 40817 ft 581 kts 93°
2026-04-27 07:30 22.95830 67.75684 40823 ft 582 kts 93°
2026-04-27 07:31 22.95799 67.84433 40825 ft 582 kts 92°
2026-04-27 07:31 22.95797 67.93205 40825 ft 582 kts 92°
2026-04-27 07:32 22.95825 68.01929 40827 ft 582 kts 92°
2026-04-27 07:32 22.95833 68.10671 40826 ft 582 kts 92°
2026-04-27 07:33 22.95823 68.19418 40824 ft 582 kts 92°
2026-04-27 07:33 22.95807 68.28213 40824 ft 582 kts 92°
2026-04-27 07:34 22.95781 68.36969 40818 ft 581 kts 94°
2026-04-27 07:34 22.95398 68.45676 40823 ft 580 kts 96°
2026-04-27 07:35 22.94886 68.54378 40822 ft 579 kts 97°
2026-04-27 07:35 22.94367 68.63079 40821 ft 580 kts 97°
2026-04-27 07:36 22.93856 68.71769 40822 ft 580 kts 97°
2026-04-27 07:36 22.93344 68.80432 40820 ft 580 kts 97°
2026-04-27 07:37 22.92823 68.89172 40827 ft 580 kts 97°
2026-04-27 07:37 22.92301 68.97830 40822 ft 580 kts 97°
2026-04-27 07:38 22.91769 69.06584 40831 ft 580 kts 97°
2026-04-27 07:38 22.91236 69.15283 40831 ft 579 kts 97°
2026-04-27 07:39 22.90699 69.23929 40834 ft 579 kts 97°
2026-04-27 07:39 22.90152 69.32676 40837 ft 579 kts 97°
2026-04-27 07:40 22.89607 69.41315 40838 ft 579 kts 97°
2026-04-27 07:40 22.89050 69.50036 40840 ft 579 kts 97°
2026-04-27 07:41 22.88484 69.58717 40837 ft 580 kts 97°
2026-04-27 07:41 22.87919 69.67384 40827 ft 579 kts 97°
2026-04-27 07:42 22.87388 69.76107 40839 ft 580 kts 97°
2026-04-27 07:42 22.86908 69.84802 40832 ft 580 kts 96°
2026-04-27 07:43 22.86409 69.93559 40826 ft 579 kts 97°
2026-04-27 07:43 22.85898 70.02235 40824 ft 579 kts 97°
2026-04-27 07:44 22.85376 70.10936 40829 ft 579 kts 97°
2026-04-27 07:44 22.84852 70.19607 40820 ft 580 kts 96°
2026-04-27 07:45 22.84323 70.28301 40818 ft 580 kts 97°
2026-04-27 07:45 22.83790 70.36992 40823 ft 579 kts 96°
2026-04-27 07:46 22.83246 70.45670 40824 ft 580 kts 96°
2026-04-27 07:46 22.82702 70.54372 40827 ft 579 kts 97°
2026-04-27 07:47 22.82146 70.63028 40826 ft 579 kts 97°
2026-04-27 07:47 22.81619 70.71724 40824 ft 581 kts 95°
2026-04-27 07:48 22.82222 70.80464 40833 ft 584 kts 80°
2026-04-27 07:48 22.84583 70.88783 40838 ft 584 kts 65°
2026-04-27 07:49 22.88562 70.96397 40848 ft 580 kts 54°
2026-04-27 07:49 22.93110 71.03669 40835 ft 582 kts 53°
2026-04-27 07:50 22.97597 71.10905 40837 ft 582 kts 53°
2026-04-27 07:50 23.02054 71.18224 40834 ft 582 kts 54°
2026-04-27 07:51 23.06503 71.25588 40834 ft 582 kts 54°
2026-04-27 07:51 23.10912 71.32900 40827 ft 583 kts 54°
2026-04-27 07:52 23.15372 71.40254 40831 ft 582 kts 53°
2026-04-27 07:52 23.19806 71.47590 40832 ft 583 kts 54°
2026-04-27 07:53 23.24251 71.54990 40828 ft 584 kts 54°
2026-04-27 07:53 23.28667 71.62356 40830 ft 584 kts 54°
2026-04-27 07:54 23.33075 71.69733 40833 ft 584 kts 54°
2026-04-27 07:54 23.37492 71.77157 40832 ft 585 kts 54°
2026-04-27 07:55 23.41917 71.84587 40837 ft 585 kts 54°
2026-04-27 07:55 23.46335 71.91998 40836 ft 586 kts 54°
2026-04-27 07:56 23.50732 71.99393 40842 ft 586 kts 54°
2026-04-27 07:56 23.55181 72.06876 40847 ft 585 kts 54°
2026-04-27 07:57 23.59569 72.14276 40850 ft 586 kts 54°
2026-04-27 07:57 23.63985 72.21728 40849 ft 586 kts 54°
2026-04-27 07:58 23.68387 72.29163 40858 ft 586 kts 54°
2026-04-27 07:58 23.72813 72.36657 40860 ft 587 kts 54°
2026-04-27 07:59 23.77206 72.44109 40867 ft 587 kts 54°
2026-04-27 07:59 23.83819 72.55333 40880 ft 587 kts 54°
2026-04-27 08:00 23.88232 72.62840 40885 ft 587 kts 54°
2026-04-27 08:00 23.92633 72.70358 40884 ft 588 kts 55°
2026-04-27 08:01 23.97020 72.77889 40897 ft 588 kts 55°
2026-04-27 08:01 24.01397 72.85390 40898 ft 589 kts 54°
2026-04-27 08:02 24.05808 72.92943 40904 ft 589 kts 55°
2026-04-27 08:02 24.10210 73.00495 40897 ft 589 kts 55°
2026-04-27 08:03 24.14609 73.07999 40904 ft 589 kts 54°
2026-04-27 08:03 24.19024 73.15551 40908 ft 589 kts 54°
2026-04-27 08:04 24.23400 73.23084 40926 ft 589 kts 54°
2026-04-27 08:04 24.27771 73.30632 40942 ft 589 kts 55°
2026-04-27 08:05 24.32162 73.38222 40963 ft 590 kts 54°
2026-04-27 08:05 24.36543 73.45808 40968 ft 590 kts 54°
2026-04-27 08:06 24.40922 73.53413 40972 ft 591 kts 55°
2026-04-27 08:06 24.45293 73.61015 40964 ft 592 kts 55°
2026-04-27 08:07 24.49649 73.68638 40961 ft 592 kts 55°
2026-04-27 08:07 24.54014 73.76298 40965 ft 592 kts 56°
2026-04-27 08:08 24.58707 73.83701 40957 ft 588 kts 46°
2026-04-27 08:08 24.64307 73.90091 40946 ft 580 kts 36°
2026-04-27 08:09 24.70706 73.95309 40940 ft 568 kts 24°
2026-04-27 08:09 24.77545 73.99657 40934 ft 566 kts 22°
2026-04-27 08:10 24.84395 74.03906 40931 ft 569 kts 22°
2026-04-27 08:10 24.91269 74.08243 40921 ft 569 kts 22°
2026-04-27 08:11 24.98089 74.12586 40913 ft 568 kts 23°
2026-04-27 08:11 25.04931 74.16956 40920 ft 568 kts 23°
2026-04-27 08:12 25.11769 74.21330 40909 ft 567 kts 22°
2026-04-27 08:12 25.18621 74.25700 40914 ft 568 kts 22°
2026-04-27 08:13 25.25437 74.30056 40913 ft 569 kts 23°
2026-04-27 08:13 25.32331 74.34481 40911 ft 570 kts 22°
2026-04-27 08:14 25.39134 74.38858 40911 ft 568 kts 22°
2026-04-27 08:14 25.45972 74.43259 40908 ft 569 kts 22°
2026-04-27 08:15 25.52820 74.47672 40906 ft 570 kts 22°
2026-04-27 08:15 25.59654 74.52087 40907 ft 568 kts 22°
2026-04-27 08:16 25.66498 74.56509 40898 ft 569 kts 22°
2026-04-27 08:16 25.73330 74.60930 40896 ft 570 kts 22°
2026-04-27 08:17 25.80154 74.65358 40894 ft 569 kts 22°
2026-04-27 08:17 25.87009 74.69839 40891 ft 570 kts 23°
2026-04-27 08:18 25.93845 74.74304 40889 ft 572 kts 23°
2026-04-27 08:18 26.00595 74.78718 40888 ft 556 kts 23°
2026-04-27 08:19 26.07214 74.83044 40723 ft 550 kts 22°
2026-04-27 08:19 26.10511 74.85193 40403 ft 548 kts 22°
2026-04-27 08:19 26.13816 74.87344 40079 ft 544 kts 22°
2026-04-27 08:20 26.17036 74.89439 39769 ft 542 kts 21°
2026-04-27 08:20 26.20306 74.91571 39447 ft 542 kts 21°
2026-04-27 08:20 26.23536 74.93683 39134 ft 542 kts 21°
2026-04-27 08:20 26.26816 74.95826 38819 ft 544 kts 21°
2026-04-27 08:21 26.30055 74.97949 38506 ft 545 kts 21°
2026-04-27 08:21 26.33343 75.00112 38225 ft 545 kts 21°
2026-04-27 08:21 26.36620 75.02268 37972 ft 545 kts 21°
2026-04-27 08:21 26.39870 75.04406 37720 ft 545 kts 22°
2026-04-27 08:22 26.43109 75.06542 37468 ft 542 kts 21°
2026-04-27 08:22 26.46374 75.08679 37214 ft 539 kts 21°
2026-04-27 08:22 26.49597 75.10767 36964 ft 539 kts 21°
2026-04-27 08:22 26.52830 75.12859 36717 ft 539 kts 21°
2026-04-27 08:23 26.56055 75.14957 36463 ft 537 kts 22°
2026-04-27 08:23 26.59272 75.17056 36215 ft 536 kts 22°
2026-04-27 08:23 26.62486 75.19160 35968 ft 534 kts 21°
2026-04-27 08:23 26.65697 75.21264 35724 ft 534 kts 22°
2026-04-27 08:24 26.68890 75.23361 35480 ft 533 kts 22°
2026-04-27 08:24 26.72087 75.25461 35224 ft 531 kts 22°
2026-04-27 08:24 26.75255 75.27542 34975 ft 531 kts 22°
2026-04-27 08:24 26.78460 75.29649 34734 ft 531 kts 22°
2026-04-27 08:25 26.81622 75.31731 34494 ft 529 kts 23°
2026-04-27 08:25 26.84781 75.33812 34243 ft 529 kts 23°
2026-04-27 08:25 26.87981 75.35923 33988 ft 529 kts 23°
2026-04-27 08:25 26.91122 75.37997 33755 ft 528 kts 23°
2026-04-27 08:26 26.94300 75.40095 33512 ft 526 kts 23°
2026-04-27 08:26 26.97456 75.42178 33270 ft 526 kts 23°
2026-04-27 08:26 27.00577 75.44241 33036 ft 526 kts 24°
2026-04-27 08:26 27.03724 75.46326 32799 ft 525 kts 24°
2026-04-27 08:27 27.06861 75.48402 32554 ft 526 kts 24°
2026-04-27 08:27 27.10009 75.50493 32316 ft 524 kts 23°
2026-04-27 08:27 27.13188 75.52594 32080 ft 526 kts 24°
2026-04-27 08:27 27.16321 75.54664 31841 ft 525 kts 24°
2026-04-27 08:28 27.19449 75.56733 31608 ft 525 kts 24°
2026-04-27 08:28 27.22602 75.58822 31373 ft 525 kts 24°
2026-04-27 08:28 27.25752 75.60915 31129 ft 524 kts 24°
2026-04-27 08:28 27.28881 75.62998 30902 ft 523 kts 24°
2026-04-27 08:29 27.32003 75.65076 30661 ft 524 kts 24°
2026-04-27 08:29 27.35145 75.67181 30422 ft 524 kts 25°
2026-04-27 08:29 27.38242 75.69266 30190 ft 524 kts 25°
2026-04-27 08:29 27.41376 75.71372 29948 ft 524 kts 25°
2026-04-27 08:30 27.44533 75.73491 29545 ft 524 kts 25°
2026-04-27 08:30 27.47638 75.75573 28888 ft 525 kts 25°
2026-04-27 08:30 27.50782 75.77680 28089 ft 525 kts 25°
2026-04-27 08:30 27.53892 75.79766 27289 ft 524 kts 26°
2026-04-27 08:31 27.57015 75.81860 26631 ft 517 kts 26°
2026-04-27 08:31 27.60089 75.83935 26121 ft 509 kts 27°
2026-04-27 08:31 27.63009 75.86073 25609 ft 504 kts 30°
2026-04-27 08:31 27.65848 75.88404 25036 ft 501 kts 33°
2026-04-27 08:32 27.68535 75.90870 24426 ft 498 kts 36°
2026-04-27 08:32 27.71175 75.93408 23737 ft 494 kts 37°
2026-04-27 08:32 27.73738 75.95900 23136 ft 489 kts 37°
2026-04-27 08:32 27.76300 75.98399 22577 ft 482 kts 38°
2026-04-27 08:33 27.78832 76.00863 22043 ft 476 kts 38°
2026-04-27 08:33 27.81329 76.03291 21497 ft 470 kts 38°
2026-04-27 08:33 27.83762 76.05652 20980 ft 464 kts 38°
2026-04-27 08:33 27.86209 76.08026 20441 ft 459 kts 38°
2026-04-27 08:34 27.88624 76.10371 19908 ft 454 kts 38°
2026-04-27 08:34 27.91014 76.12691 19390 ft 450 kts 38°
2026-04-27 08:34 27.93342 76.14951 18886 ft 445 kts 38°
2026-04-27 08:34 27.95683 76.17226 18365 ft 441 kts 38°
2026-04-27 08:35 27.98004 76.19483 17855 ft 438 kts 38°
2026-04-27 08:35 28.00299 76.21715 17347 ft 434 kts 38°
2026-04-27 08:35 28.02586 76.23946 16822 ft 432 kts 38°
2026-04-27 08:35 28.04845 76.26148 16372 ft 426 kts 38°
2026-04-27 08:36 28.07060 76.28309 16034 ft 417 kts 38°
2026-04-27 08:36 28.09216 76.30418 15855 ft 403 kts 38°
2026-04-27 08:36 28.11299 76.32452 15676 ft 391 kts 38°
2026-04-27 08:36 28.13361 76.34459 15445 ft 381 kts 38°
2026-04-27 08:37 28.15334 76.36382 15326 ft 369 kts 38°
2026-04-27 08:37 28.17241 76.38247 15136 ft 360 kts 38°
2026-04-27 08:37 28.19102 76.40066 15036 ft 348 kts 38°
2026-04-27 08:37 28.20919 76.41843 14959 ft 336 kts 38°
2026-04-27 08:38 28.22607 76.43607 14891 ft 328 kts 45°
2026-04-27 08:38 28.24044 76.45616 14699 ft 328 kts 55°
2026-04-27 08:38 28.25243 76.47811 14410 ft 328 kts 59°
2026-04-27 08:38 28.26365 76.50044 14125 ft 327 kts 59°
2026-04-27 08:39 28.27479 76.52282 13827 ft 326 kts 59°
2026-04-27 08:39 28.28597 76.54504 13536 ft 326 kts 59°
2026-04-27 08:39 28.29719 76.56714 13258 ft 324 kts 59°
2026-04-27 08:39 28.30856 76.58939 12966 ft 323 kts 59°
2026-04-27 08:40 28.31974 76.61115 12678 ft 321 kts 59°
2026-04-27 08:40 28.33101 76.63309 12539 ft 316 kts 59°
2026-04-27 08:40 28.34200 76.65449 12429 ft 313 kts 59°
2026-04-27 08:40 28.35210 76.67596 12276 ft 311 kts 64°
2026-04-27 08:41 28.36135 76.69813 12014 ft 309 kts 65°
2026-04-27 08:41 28.37036 76.72039 11765 ft 307 kts 66°
2026-04-27 08:41 28.37911 76.74213 11523 ft 305 kts 66°
2026-04-27 08:41 28.38798 76.76411 11274 ft 303 kts 66°
2026-04-27 08:42 28.39669 76.78561 11035 ft 301 kts 65°
2026-04-27 08:42 28.40544 76.80718 10870 ft 296 kts 65°
2026-04-27 08:42 28.41391 76.82807 10856 ft 287 kts 65°
2026-04-27 08:42 28.42216 76.84843 10853 ft 282 kts 66°
2026-04-27 08:43 28.43024 76.86838 10852 ft 280 kts 65°
2026-04-27 08:43 28.43846 76.88866 10851 ft 278 kts 65°
2026-04-27 08:43 28.44648 76.90842 10849 ft 276 kts 65°
2026-04-27 08:43 28.45430 76.92770 10842 ft 263 kts 65°
2026-04-27 08:44 28.46175 76.94607 10838 ft 249 kts 65°
2026-04-27 08:44 28.46788 76.96413 10832 ft 241 kts 83°
2026-04-27 08:44 28.46778 76.98251 10724 ft 234 kts 104°
2026-04-27 08:44 28.46397 77.00071 10353 ft 239 kts 109°
2026-04-27 08:45 28.45948 77.01889 10058 ft 241 kts 109°
2026-04-27 08:45 28.45506 77.03735 9833 ft 240 kts 109°
2026-04-27 08:45 28.45093 77.05553 9609 ft 239 kts 108°
2026-04-27 08:45 28.44690 77.07377 9363 ft 237 kts 107°
2026-04-27 08:46 28.44299 77.09187 8867 ft 240 kts 107°
2026-04-27 08:46 28.43896 77.11059 8332 ft 244 kts 107°
2026-04-27 08:46 28.43496 77.12924 7909 ft 243 kts 107°
2026-04-27 08:46 28.43097 77.14778 7535 ft 241 kts 107°
2026-04-27 08:47 28.42706 77.16594 7167 ft 239 kts 107°
2026-04-27 08:47 28.42308 77.18442 6794 ft 238 kts 107°
2026-04-27 08:47 28.41918 77.20241 6436 ft 236 kts 107°
2026-04-27 08:47 28.41530 77.22028 6082 ft 234 kts 107°
2026-04-27 08:48 28.41141 77.23825 5723 ft 233 kts 108°
2026-04-27 08:48 28.40755 77.25601 5367 ft 232 kts 107°
2026-04-27 08:48 28.40388 77.27389 5013 ft 231 kts 99°
2026-04-27 08:48 28.40582 77.29172 4658 ft 234 kts 63°
2026-04-27 08:49 28.41594 77.30546 4307 ft 228 kts 29°
2026-04-27 08:49 28.42974 77.31420 3971 ft 226 kts 22°
2026-04-27 08:49 28.44395 77.32153 3627 ft 224 kts 16°
2026-04-27 08:49 28.45869 77.32709 3309 ft 220 kts 12°
2026-04-27 08:50 28.47336 77.33146 3073 ft 209 kts 357°
2026-04-27 08:50 28.48633 77.32855 3011 ft 179 kts 326°
2026-04-27 08:50 28.49445 77.31957 3016 ft 151 kts 291°
2026-04-27 08:50 28.49792 77.30894 3020 ft 143 kts 281°
2026-04-27 08:51 28.50057 77.29793 3004 ft 143 kts 280°
2026-04-27 08:51 28.50300 77.28702 3001 ft 143 kts 279°
2026-04-27 08:51 28.50537 77.27612 2996 ft 142 kts 279°
2026-04-27 08:51 28.50774 77.26526 2986 ft 138 kts 279°
2026-04-27 08:52 28.51003 77.25471 2988 ft 135 kts 279°
2026-04-27 08:52 28.51226 77.24434 2987 ft 135 kts 278°
2026-04-27 08:52 28.51447 77.23406 2874 ft 130 kts 279°
2026-04-27 08:52 28.51659 77.22427 2722 ft 126 kts 279°
2026-04-27 08:53 28.51864 77.21465 2574 ft 126 kts 279°
2026-04-27 08:53 28.52073 77.20493 2436 ft 127 kts 279°
2026-04-27 08:53 28.52272 77.19512 2280 ft 127 kts 279°
2026-04-27 08:53 28.52490 77.18533 2115 ft 127 kts 279°
2026-04-27 08:54 28.52698 77.17569 1935 ft 128 kts 280°
2026-04-27 08:54 28.52917 77.16588 1784 ft 128 kts 280°
2026-04-27 08:54 28.53126 77.15605 1631 ft 128 kts 279°
2026-04-27 08:54 28.53339 77.14616 1499 ft 128 kts 281°
2026-04-27 08:55 28.53552 77.13641 1347 ft 128 kts 281°
2026-04-27 08:55 28.53762 77.12653 1162 ft 128 kts 281°
2026-04-27 08:55 28.53975 77.11671 1000 ft 128 kts 281°
2026-04-27 08:55 28.54182 77.10694 865 ft 127 kts 280°
2026-04-27 08:56 28.54377 77.09761 783 ft 108 kts 281°
2026-04-27 08:56 28.54508 77.09135 782 ft 53 kts 278°
2026-04-27 08:56 28.54590 77.08765 782 ft 47 kts 287°
2026-04-27 08:56 28.54665 77.08407 782 ft 46 kts 281°
2026-04-27 08:57 28.54870 77.07918 782 ft 29 kts 319°
2026-04-27 08:57 28.55014 77.07743 782 ft 30 kts 311°
2026-04-27 08:57 28.55123 77.07611 782 ft 18 kts 355°
2026-04-27 08:58 28.55236 77.07672 782 ft 18 kts 11°
2026-04-27 08:58 28.55372 77.07697 782 ft 20 kts
2026-04-27 08:58 28.55517 77.07735 782 ft 22 kts 14°
2026-04-27 08:58 28.55630 77.07803 781 ft 14 kts 71°
2026-04-27 08:59 28.55624 77.07914 781 ft 14 kts 99°
2026-04-27 08:59 28.55596 77.07988 782 ft 7 kts 149°
2026-04-27 08:59 28.55562 77.08006 782 ft 4 kts 146°